| time (UTC) | temp F | wind direction | speed MPH | gust MPH | rain 1hr in | rain 24hr in | rain mn in | humidity % | barometer mb |
| 20260904132803 | 73 | 349 | 3.0 | 7.0 | 0.00 | 0.00 | 0.00 | 85 | 1023.2 |
| 20260904132703 | 73 | 347 | 3.0 | 7.0 | 0.00 | 0.00 | 0.00 | 85 | 1023.1 |
| 20260904132603 | 73 | 347 | 3.0 | 7.0 | 0.00 | 0.00 | 0.00 | 85 | 1023.2 |
| 20260904132502 | 73 | 346 | 4.0 | 7.0 | 0.00 | 0.00 | 0.00 | 84 | 1022.9 |
| 20260904132403 | 73 | 346 | 4.0 | 8.0 | 0.00 | 0.00 | 0.00 | 85 | 1023.2 |
| 20260904132324 | 73 | 346 | 4.0 | 8.0 | 0.00 | 0.00 | 0.00 | 84 | 1023.2 |
| 20260904132203 | 73 | 347 | 4.0 | 8.0 | 0.00 | 0.00 | 0.00 | 84 | 1023.1 |
| 20260904132103 | 73 | 347 | 4.0 | 8.0 | 0.00 | 0.00 | 0.00 | 85 | 1023.2 |
| 20260904132003 | 73 | 347 | 4.0 | 8.0 | 0.00 | 0.00 | 0.00 | 85 | 1023.1 |
| 20260904131903 | 73 | 349 | 4.0 | 8.0 | 0.00 | 0.00 | 0.00 | 84 | 1023.1 |
| 20260904131803 | 73 | 350 | 4.0 | 8.0 | 0.00 | 0.00 | 0.00 | 84 | 1023.1 |
| 20260904131703 | 74 | 351 | 4.0 | 8.0 | 0.00 | 0.00 | 0.00 | 83 | 1023.1 |
| 20260904131603 | 74 | 351 | 3.0 | 8.0 | 0.00 | 0.00 | 0.00 | 84 | 1023.0 |
| 20260904131503 | 74 | 350 | 3.0 | 8.0 | 0.00 | 0.00 | 0.00 | 83 | 1022.9 |
| 20260904131403 | 74 | 350 | 3.0 | 7.0 | 0.00 | 0.00 | 0.00 | 83 | 1023.1 |
| 20260904131303 | 74 | 348 | 3.0 | 7.0 | 0.00 | 0.00 | 0.00 | 82 | 1023.0 |
| 20260904131203 | 75 | 340 | 3.0 | 6.0 | 0.00 | 0.00 | 0.00 | 82 | 1023.0 |
| 20260904131103 | 76 | 341 | 3.0 | 6.0 | 0.00 | 0.00 | 0.00 | 81 | 1022.9 |
| 20260904131003 | 76 | 340 | 2.0 | 6.0 | 0.00 | 0.00 | 0.00 | 80 | 1022.9 |
| 20260904130903 | 76 | 340 | 2.0 | 6.0 | 0.00 | 0.00 | 0.00 | 80 | 1022.9 |
| 20260904130824 | 76 | 335 | 2.0 | 4.0 | 0.00 | 0.00 | 0.00 | 81 | 1022.9 |
| 20260904130724 | 76 | 340 | 2.0 | 4.0 | 0.00 | 0.00 | 0.00 | 81 | 1023.1 |
| 20260904130603 | 76 | 340 | 2.0 | 4.0 | 0.00 | 0.00 | 0.00 | 81 | 1023.3 |
| 20260904130503 | 76 | 341 | 2.0 | 4.0 | 0.00 | 0.00 | 0.00 | 81 | 1023.2 |
| 20260904130403 | 75 | 340 | 2.0 | 4.0 | 0.00 | 0.00 | 0.00 | 81 | 1023.1 |
| 20260904130303 | 75 | 343 | 2.0 | 4.0 | 0.00 | 0.00 | 0.00 | 81 | 1023.3 |
| 20260904130203 | 75 | 351 | 2.0 | 4.0 | 0.00 | 0.00 | 0.00 | 81 | 1023.2 |
| 20260904130003 | 75 | 352 | 2.0 | 4.0 | 0.00 | 0.00 | 0.00 | 81 | 1023.1 |
| 20260904125903 | 75 | 346 | 3.0 | 4.0 | 0.00 | 0.00 | 0.00 | 81 | 1023.1 |
| 20260904125803 | 75 | 345 | 3.0 | 4.0 | 0.00 | 0.00 | 0.00 | 81 | 1022.9 |
| 20260904125703 | 75 | 340 | 3.0 | 4.0 | 0.00 | 0.00 | 0.00 | 81 | 1023.2 |
| 20260904125624 | 75 | 338 | 2.0 | 4.0 | 0.00 | 0.00 | 0.00 | 82 | 1023.0 |
| 20260904125503 | 74 | 339 | 2.0 | 4.0 | 0.00 | 0.00 | 0.00 | 82 | 1022.9 |
| 20260904125403 | 75 | 340 | 2.0 | 4.0 | 0.00 | 0.00 | 0.00 | 83 | 1022.9 |
| 20260904125305 | 75 | 341 | 2.0 | 4.0 | 0.00 | 0.00 | 0.00 | 82 | 1023.0 |
| 20260904125203 | 75 | 344 | 2.0 | 4.0 | 0.00 | 0.00 | 0.00 | 81 | 1022.8 |
| 20260904125103 | 75 | 344 | 2.0 | 4.0 | 0.00 | 0.00 | 0.00 | 82 | 1022.9 |
| 20260904125003 | 75 | 341 | 2.0 | 4.0 | 0.00 | 0.00 | 0.00 | 82 | 1022.8 |
| 20260904124903 | 75 | 341 | 3.0 | 8.0 | 0.00 | 0.00 | 0.00 | 81 | 1022.8 |
| 20260904124803 | 74 | 346 | 3.0 | 8.0 | 0.00 | 0.00 | 0.00 | 83 | 1022.8 |
| 20260904124703 | 74 | 351 | 3.0 | 8.0 | 0.00 | 0.00 | 0.00 | 83 | 1022.8 |
| 20260904124603 | 74 | 350 | 3.0 | 8.0 | 0.00 | 0.00 | 0.00 | 83 | 1022.9 |
| 20260904124503 | 74 | 347 | 3.0 | 8.0 | 0.00 | 0.00 | 0.00 | 82 | 1022.8 |
| 20260904124424 | 74 | 343 | 3.0 | 8.0 | 0.00 | 0.00 | 0.00 | 82 | 1022.9 |
| 20260904124303 | 74 | 340 | 3.0 | 8.0 | 0.00 | 0.00 | 0.00 | 82 | 1022.9 |
| 20260904124224 | 75 | 339 | 3.0 | 8.0 | 0.00 | 0.00 | 0.00 | 83 | 1022.7 |
| 20260904124103 | 75 | 335 | 3.0 | 8.0 | 0.00 | 0.00 | 0.00 | 82 | 1022.7 |
| 20260904124003 | 76 | 335 | 2.0 | 8.0 | 0.00 | 0.00 | 0.00 | 80 | 1022.8 |
| 20260904123903 | 76 | 335 | 2.0 | 4.0 | 0.00 | 0.00 | 0.00 | 79 | 1022.7 |
| 20260904123803 | 76 | 334 | 2.0 | 4.0 | 0.00 | 0.00 | 0.00 | 81 | 1022.6 |
| 20260904123703 | 76 | 331 | 2.0 | 4.0 | 0.00 | 0.00 | 0.00 | 80 | 1022.7 |
| 20260904123603 | 76 | 330 | 2.0 | 4.0 | 0.00 | 0.00 | 0.00 | 80 | 1022.8 |
| 20260904123503 | 76 | 333 | 2.0 | 4.0 | 0.00 | 0.00 | 0.00 | 79 | 1022.6 |
| 20260904123403 | 76 | 336 | 2.0 | 4.0 | 0.00 | 0.00 | 0.00 | 78 | 1022.8 |
| 20260904123303 | 76 | 341 | 2.0 | 4.0 | 0.00 | 0.00 | 0.00 | 80 | 1022.6 |
| 20260904123203 | 76 | 343 | 2.0 | 4.0 | 0.00 | 0.00 | 0.00 | 81 | 1022.6 |
| 20260904123103 | 75 | 349 | 2.0 | 4.0 | 0.00 | 0.00 | 0.00 | 83 | 1022.9 |
| 20260904123003 | 75 | 349 | 2.0 | 6.0 | 0.00 | 0.00 | 0.00 | 82 | 1022.6 |
| 20260904122903 | 75 | 349 | 2.0 | 6.0 | 0.00 | 0.00 | 0.00 | 81 | 1022.6 |
| 20260904122803 | 74 | 349 | 2.0 | 6.0 | 0.00 | 0.00 | 0.00 | 81 | 1022.7 |
| 20260904122703 | 74 | 352 | 2.0 | 6.0 | 0.00 | 0.00 | 0.00 | 82 | 1022.6 |
| 20260904122603 | 74 | 353 | 2.0 | 6.0 | 0.00 | 0.00 | 0.00 | 82 | 1022.3 |
| 20260904122503 | 74 | 353 | 2.0 | 6.0 | 0.00 | 0.00 | 0.00 | 83 | 1022.3 |
| 20260904122403 | 74 | 353 | 2.0 | 6.0 | 0.00 | 0.00 | 0.00 | 83 | 1022.3 |
| 20260904122306 | 74 | 352 | 2.0 | 6.0 | 0.00 | 0.00 | 0.00 | 82 | 1022.7 |
| 20260904122203 | 74 | 353 | 2.0 | 6.0 | 0.00 | 0.00 | 0.00 | 82 | 1022.7 |
| 20260904122103 | 75 | 352 | 2.0 | 6.0 | 0.00 | 0.00 | 0.00 | 83 | 1022.4 |
| 20260904122003 | 75 | 352 | 2.0 | 6.0 | 0.00 | 0.00 | 0.00 | 83 | 1022.4 |
| 20260904121903 | 74 | 352 | 2.0 | 3.0 | 0.00 | 0.00 | 0.00 | 83 | 1022.6 |
| 20260904121803 | 74 | 354 | 2.0 | 3.0 | 0.00 | 0.00 | 0.00 | 83 | 1022.6 |
| 20260904121703 | 74 | 354 | 2.0 | 3.0 | 0.00 | 0.00 | 0.00 | 84 | 1022.5 |
| 20260904121603 | 74 | 352 | 2.0 | 3.0 | 0.00 | 0.00 | 0.00 | 83 | 1022.7 |
| 20260904121503 | 74 | 354 | 2.0 | 3.0 | 0.00 | 0.00 | 0.00 | 84 | 1022.9 |
| 20260904121403 | 74 | 354 | 2.0 | 3.0 | 0.00 | 0.00 | 0.00 | 85 | 1022.6 |
| 20260904121303 | 73 | 354 | 2.0 | 3.0 | 0.00 | 0.00 | 0.00 | 84 | 1022.7 |
| 20260904121203 | 74 | 354 | 2.0 | 3.0 | 0.00 | 0.00 | 0.00 | 84 | 1022.7 |
| 20260904121103 | 74 | 350 | 2.0 | 3.0 | 0.00 | 0.00 | 0.00 | 84 | 1022.8 |
| 20260904121003 | 74 | 352 | 2.0 | 3.0 | 0.00 | 0.00 | 0.00 | 84 | 1022.8 |
| 20260904120903 | 74 | 355 | 2.0 | 3.0 | 0.00 | 0.00 | 0.00 | 86 | 1022.7 |
| 20260904120803 | 73 | 352 | 2.0 | 3.0 | 0.00 | 0.00 | 0.00 | 86 | 1023.0 |
| 20260904120703 | 73 | 358 | 2.0 | 3.0 | 0.00 | 0.00 | 0.00 | 85 | 1022.9 |
| 20260904120603 | 73 | 359 | 2.0 | 3.0 | 0.00 | 0.00 | 0.00 | 86 | 1023.0 |
| 20260904120503 | 73 | 11 | 2.0 | 3.0 | 0.00 | 0.00 | 0.00 | 87 | 1022.9 |
| 20260904120424 | 73 | 12 | 2.0 | 3.0 | 0.00 | 0.00 | 0.00 | 88 | 1022.9 |
| 20260904120303 | 73 | 24 | 1.0 | 3.0 | 0.00 | 0.00 | 0.00 | 89 | 1023.0 |
| 20260904120203 | 72 | 50 | 1.0 | 3.0 | 0.00 | 0.00 | 0.00 | 91 | 1022.9 |
| 20260904120003 | 72 | 26 | 1.0 | 3.0 | 0.00 | 0.00 | 0.00 | 92 | 1022.9 |
| 20260904115924 | 71 | 26 | 1.0 | 3.0 | 0.00 | 0.00 | 0.00 | 92 | 1022.9 |
| 20260904115803 | 71 | 52 | 1.0 | 3.0 | 0.00 | 0.00 | 0.00 | 93 | 1022.8 |
| 20260904115703 | 71 | 26 | 1.0 | 2.0 | 0.00 | 0.00 | 0.00 | 94 | 1022.7 |
| 20260904115603 | 71 | 22 | 0.0 | 2.0 | 0.00 | 0.00 | 0.00 | 96 | 1022.8 |
| 20260904115503 | 71 | 6 | 0.0 | 2.0 | 0.00 | 0.00 | 0.00 | 99 | 1022.8 |
| 20260904115403 | 71 | 7 | 0.0 | 2.0 | 0.00 | 0.00 | 0.00 | 99 | 1022.8 |
| 20260904115306 | 71 | 7 | 0.0 | 2.0 | 0.00 | 0.00 | 0.00 | 99 | 1022.9 |
| 20260904115203 | 70 | 3 | 1.0 | 2.0 | 0.00 | 0.00 | 0.00 | 99 | 1022.5 |
| 20260904115103 | 70 | 358 | 1.0 | 2.0 | 0.00 | 0.00 | 0.00 | 99 | 1022.7 |
| 20260904115003 | 70 | 360 | 1.0 | 2.0 | 0.00 | 0.00 | 0.00 | 99 | 1022.7 |
| 20260904114924 | 70 | 360 | 1.0 | 2.0 | 0.00 | 0.00 | 0.00 | 99 | 1022.5 |
| 20260904114803 | 69 | 360 | 1.0 | 2.0 | 0.00 | 0.00 | 0.00 | 99 | 1022.7 |
| 20260904114703 | 69 | 347 | 1.0 | 3.0 | 0.00 | 0.00 | 0.00 | 99 | 1022.7 |
| 20260904114603 | 69 | 347 | 1.0 | 3.0 | 0.00 | 0.00 | 0.00 | 99 | 1022.6 |
| 20260904114503 | 69 | 349 | 1.0 | 3.0 | 0.00 | 0.00 | 0.00 | 99 | 1022.7 |
| 20260904114424 | 68 | 349 | 1.0 | 3.0 | 0.00 | 0.00 | 0.00 | 99 | 1022.7 |
| 20260904114303 | 68 | 350 | 1.0 | 3.0 | 0.00 | 0.00 | 0.00 | 99 | 1022.7 |
| 20260904114203 | 68 | 350 | 1.0 | 3.0 | 0.00 | 0.00 | 0.00 | 99 | 1022.6 |
| 20260904114103 | 68 | 345 | 1.0 | 3.0 | 0.00 | 0.00 | 0.00 | 99 | 1022.7 |
| 20260904114003 | 68 | 351 | 1.0 | 3.0 | 0.00 | 0.00 | 0.00 | 99 | 1022.7 |
| 20260904113924 | 68 | 350 | 2.0 | 4.0 | 0.00 | 0.00 | 0.00 | 99 | 1022.7 |
| 20260904113803 | 68 | 350 | 2.0 | 4.0 | 0.00 | 0.00 | 0.00 | 99 | 1022.8 |
| 20260904113703 | 68 | 349 | 2.0 | 4.0 | 0.00 | 0.00 | 0.00 | 99 | 1022.6 |
| 20260904113603 | 68 | 355 | 2.0 | 4.0 | 0.00 | 0.00 | 0.00 | 99 | 1022.6 |
| 20260904113503 | 68 | 354 | 2.0 | 4.0 | 0.00 | 0.00 | 0.00 | 99 | 1022.7 |
| 20260904113403 | 67 | 353 | 2.0 | 4.0 | 0.00 | 0.00 | 0.00 | 99 | 1022.5 |
| 20260904113303 | 67 | 353 | 2.0 | 4.0 | 0.00 | 0.00 | 0.00 | 99 | 1022.5 |
| 20260904113203 | 67 | 354 | 1.0 | 4.0 | 0.00 | 0.00 | 0.00 | 99 | 1022.6 |
| 20260904113103 | 67 | 359 | 1.0 | 4.0 | 0.00 | 0.00 | 0.00 | 99 | 1022.5 |
| 20260904113003 | 67 | 358 | 1.0 | 4.0 | 0.00 | 0.00 | 0.00 | 99 | 1022.3 |
| 20260904112903 | 67 | 357 | 1.0 | 4.0 | 0.00 | 0.00 | 0.00 | 99 | 1022.4 |
| 20260904112803 | 67 | 360 | 1.0 | 2.0 | 0.00 | 0.00 | 0.00 | 99 | 1022.5 |
| 20260904112703 | 67 | 360 | 1.0 | 2.0 | 0.00 | 0.00 | 0.00 | 99 | 1022.3 |
| 20260904112603 | 67 | 6 | 1.0 | 2.0 | 0.00 | 0.00 | 0.00 | 99 | 1022.5 |
| 20260904112524 | 67 | 7 | 1.0 | 2.0 | 0.00 | 0.00 | 0.00 | 99 | 1022.5 |
| 20260904112403 | 67 | 7 | 1.0 | 2.0 | 0.00 | 0.00 | 0.00 | 99 | 1022.6 |
| 20260904112305 | 66 | 6 | 1.0 | 2.0 | 0.00 | 0.00 | 0.00 | 99 | 1022.5 |
| 20260904112203 | 66 | 4 | 1.0 | 2.0 | 0.00 | 0.00 | 0.00 | 99 | 1022.5 |
| 20260904112103 | 66 | 3 | 1.0 | 2.0 | 0.00 | 0.00 | 0.00 | 99 | 1022.5 |
| 20260904112003 | 66 | 2 | 1.0 | 2.0 | 0.00 | 0.00 | 0.00 | 99 | 1022.7 |
| 20260904111924 | 67 | 1 | 1.0 | 2.0 | 0.00 | 0.00 | 0.00 | 99 | 1022.6 |
| 20260904111824 | 67 | 2 | 1.0 | 2.0 | 0.00 | 0.00 | 0.00 | 99 | 1022.5 |
| 20260904111703 | 67 | 2 | 1.0 | 1.0 | 0.00 | 0.00 | 0.00 | 99 | 1022.5 |
| 20260904111624 | 66 | 1 | 1.0 | 1.0 | 0.00 | 0.00 | 0.00 | 99 | 1022.5 |
| 20260904111503 | 66 | 1 | 1.0 | 1.0 | 0.00 | 0.00 | 0.00 | 99 | 1022.6 |
| 20260904111403 | 66 | 1 | 1.0 | 1.0 | 0.00 | 0.00 | 0.00 | 99 | 1022.5 |
| 20260904111303 | 66 | 356 | 1.0 | 2.0 | 0.00 | 0.00 | 0.00 | 99 | 1022.4 |
| 20260904111224 | 66 | 350 | 1.0 | 2.0 | 0.00 | 0.00 | 0.00 | 99 | 1022.4 |
| 20260904111124 | 66 | 344 | 1.0 | 2.0 | 0.00 | 0.00 | 0.00 | 99 | 1022.5 |
| 20260904111003 | 66 | 343 | 1.0 | 2.0 | 0.00 | 0.00 | 0.00 | 99 | 1022.3 |
| 20260904110903 | 66 | 340 | 1.0 | 2.0 | 0.00 | 0.00 | 0.00 | 99 | 1022.4 |
| 20260904110803 | 66 | 348 | 1.0 | 2.0 | 0.00 | 0.00 | 0.00 | 99 | 1022.3 |
| 20260904110703 | 66 | 352 | 1.0 | 2.0 | 0.00 | 0.00 | 0.00 | 99 | 1022.3 |
| 20260904110624 | 66 | 351 | 1.0 | 2.0 | 0.00 | 0.00 | 0.00 | 99 | 1022.2 |
| 20260904110503 | 65 | 4 | 1.0 | 2.0 | 0.00 | 0.00 | 0.00 | 99 | 1022.4 |
| 20260904110403 | 65 | 24 | 1.0 | 2.0 | 0.00 | 0.00 | 0.00 | 99 | 1022.2 |
| 20260904110303 | 66 | 36 | 1.0 | 2.0 | 0.00 | 0.00 | 0.00 | 99 | 1022.3 |
| 20260904110226 | 66 | 41 | 1.0 | 2.0 | 0.00 | 0.00 | 0.00 | 99 | 1022.5 |
| 20260904110003 | 66 | 61 | 1.0 | 3.0 | 0.00 | 0.00 | 0.00 | 99 | 1022.4 |
| 20260904105924 | 66 | 61 | 2.0 | 3.0 | 0.00 | 0.00 | 0.00 | 99 | 1022.5 |
| 20260904105824 | 66 | 62 | 2.0 | 3.0 | 0.00 | 0.00 | 0.00 | 99 | 1022.7 |
| 20260904105724 | 66 | 64 | 2.0 | 3.0 | 0.00 | 0.00 | 0.00 | 99 | 1022.7 |
| 20260904105603 | 66 | 65 | 2.0 | 3.0 | 0.00 | 0.00 | 0.00 | 99 | 1022.6 |
| 20260904105503 | 66 | 62 | 2.0 | 3.0 | 0.00 | 0.00 | 0.00 | 99 | 1022.8 |
| 20260904105403 | 66 | 60 | 2.0 | 3.0 | 0.00 | 0.00 | 0.00 | 99 | 1022.8 |
| 20260904105305 | 65 | 58 | 2.0 | 3.0 | 0.00 | 0.00 | 0.00 | 99 | 1022.7 |
| 20260904105203 | 66 | 58 | 2.0 | 3.0 | 0.00 | 0.00 | 0.00 | 99 | 1022.6 |
| 20260904105103 | 66 | 58 | 2.0 | 3.0 | 0.00 | 0.00 | 0.00 | 99 | 1022.7 |
| 20260904105003 | 65 | 55 | 2.0 | 3.0 | 0.00 | 0.00 | 0.00 | 99 | 1022.6 |
| 20260904104903 | 65 | 54 | 1.0 | 3.0 | 0.00 | 0.00 | 0.00 | 99 | 1022.5 |
| 20260904104803 | 65 | 54 | 1.0 | 3.0 | 0.00 | 0.00 | 0.00 | 99 | 1022.6 |
| 20260904104724 | 65 | 51 | 1.0 | 3.0 | 0.00 | 0.00 | 0.00 | 99 | 1022.7 |
| 20260904104603 | 65 | 46 | 1.0 | 2.0 | 0.00 | 0.00 | 0.00 | 99 | 1022.6 |
| 20260904104503 | 65 | 45 | 1.0 | 2.0 | 0.00 | 0.00 | 0.00 | 99 | 1022.8 |
| 20260904104403 | 65 | 46 | 1.0 | 2.0 | 0.00 | 0.00 | 0.00 | 99 | 1022.7 |
| 20260904104303 | 65 | 46 | 1.0 | 2.0 | 0.00 | 0.00 | 0.00 | 99 | 1022.8 |
| 20260904104224 | 65 | 45 | 1.0 | 2.0 | 0.00 | 0.00 | 0.00 | 99 | 1022.7 |
| 20260904104103 | 65 | 46 | 1.0 | 2.0 | 0.00 | 0.00 | 0.00 | 99 | 1022.7 |
| 20260904104024 | 65 | 36 | 1.0 | 2.0 | 0.00 | 0.00 | 0.00 | 99 | 1022.4 |
| 20260904103903 | 65 | 28 | 1.0 | 2.0 | 0.00 | 0.00 | 0.00 | 99 | 1022.6 |
| 20260904103803 | 65 | 29 | 1.0 | 2.0 | 0.00 | 0.00 | 0.00 | 99 | 1022.4 |
| 20260904103703 | 65 | 29 | 1.0 | 2.0 | 0.00 | 0.00 | 0.00 | 99 | 1022.5 |
| 20260904103603 | 65 | 24 | 1.0 | 2.0 | 0.00 | 0.00 | 0.00 | 99 | 1022.6 |
| 20260904103503 | 65 | 19 | 1.0 | 2.0 | 0.00 | 0.00 | 0.00 | 99 | 1022.5 |
| 20260904103403 | 65 | 18 | 1.0 | 2.0 | 0.00 | 0.00 | 0.00 | 99 | 1022.4 |
| 20260904103303 | 65 | 16 | 1.0 | 2.0 | 0.00 | 0.00 | 0.00 | 99 | 1022.6 |
| 20260904103203 | 65 | 10 | 1.0 | 2.0 | 0.00 | 0.00 | 0.00 | 99 | 1022.7 |
| 20260904103103 | 65 | 9 | 1.0 | 2.0 | 0.00 | 0.00 | 0.00 | 99 | 1022.6 |
| 20260904103003 | 65 | 13 | 1.0 | 2.0 | 0.00 | 0.00 | 0.00 | 99 | 1022.6 |
| 20260904102903 | 65 | 25 | 1.0 | 2.0 | 0.00 | 0.00 | 0.00 | 99 | 1022.6 |
| 20260904102803 | 65 | 15 | 1.0 | 2.0 | 0.00 | 0.00 | 0.00 | 99 | 1022.6 |
| 20260904102703 | 65 | 360 | 1.0 | 2.0 | 0.00 | 0.00 | 0.00 | 99 | 1022.5 |
| 20260904102603 | 65 | 356 | 1.0 | 2.0 | 0.00 | 0.00 | 0.00 | 99 | 1022.3 |
| 20260904102503 | 65 | 355 | 0.0 | 2.0 | 0.00 | 0.00 | 0.00 | 99 | 1022.3 |
| 20260904102403 | 65 | 355 | 0.0 | 2.0 | 0.00 | 0.00 | 0.00 | 99 | 1022.6 |
| 20260904102306 | 65 | 353 | 1.0 | 2.0 | 0.00 | 0.00 | 0.00 | 99 | 1022.3 |
| 20260904102203 | 65 | 355 | 0.0 | 2.0 | 0.00 | 0.00 | 0.00 | 99 | 1022.3 |
| 20260904102103 | 65 | 350 | 0.0 | 2.0 | 0.00 | 0.00 | 0.00 | 99 | 1022.5 |
| 20260904102003 | 65 | 350 | 0.0 | 2.0 | 0.00 | 0.00 | 0.00 | 99 | 1022.5 |
| 20260904101903 | 65 | 347 | 0.0 | 2.0 | 0.00 | 0.00 | 0.00 | 99 | 1022.5 |
| 20260904101803 | 65 | 347 | 0.0 | 2.0 | 0.00 | 0.00 | 0.00 | 99 | 1022.5 |
| 20260904101704 | 65 | 355 | 0.0 | 2.0 | 0.00 | 0.00 | 0.00 | 99 | 1022.3 |
| 20260904101603 | 65 | 14 | 0.0 | 1.0 | 0.00 | 0.00 | 0.00 | 99 | 1022.5 |
| 20260904101503 | 65 | 23 | 0.0 | 1.0 | 0.00 | 0.00 | 0.00 | 99 | 1022.4 |
| 20260904101403 | 65 | 31 | 0.0 | 2.0 | 0.00 | 0.00 | 0.00 | 99 | 1022.4 |
| 20260904101303 | 65 | 37 | 1.0 | 2.0 | 0.00 | 0.00 | 0.00 | 99 | 1022.5 |
| 20260904101224 | 65 | 37 | 1.0 | 2.0 | 0.00 | 0.00 | 0.00 | 99 | 1022.4 |
| 20260904101124 | 65 | 33 | 1.0 | 2.0 | 0.00 | 0.00 | 0.00 | 99 | 1022.6 |
| 20260904101003 | 64 | 35 | 1.0 | 2.0 | 0.00 | 0.00 | 0.00 | 99 | 1022.5 |
| 20260904100924 | 64 | 36 | 1.0 | 2.0 | 0.00 | 0.00 | 0.00 | 99 | 1022.5 |
| 20260904100803 | 64 | 36 | 1.0 | 2.0 | 0.00 | 0.00 | 0.00 | 99 | 1022.4 |
| 20260904100703 | 64 | 36 | 1.0 | 2.0 | 0.00 | 0.00 | 0.00 | 99 | 1022.5 |
| 20260904100603 | 64 | 35 | 1.0 | 2.0 | 0.00 | 0.00 | 0.00 | 99 | 1022.5 |
| 20260904100503 | 64 | 35 | 1.0 | 2.0 | 0.00 | 0.00 | 0.00 | 99 | 1022.4 |
| 20260904100403 | 64 | 34 | 1.0 | 2.0 | 0.00 | 0.00 | 0.00 | 99 | 1022.5 |
| 20260904100303 | 64 | 33 | 1.0 | 2.0 | 0.00 | 0.00 | 0.00 | 99 | 1022.5 |
| 20260904100203 | 64 | 26 | 1.0 | 2.0 | 0.00 | 0.00 | 0.00 | 99 | 1022.4 |
| 20260904100124 | 64 | 31 | 1.0 | 1.0 | 0.00 | 0.00 | 0.00 | 99 | 1022.4 |
| 20260904100003 | 64 | 30 | 1.0 | 1.0 | 0.00 | 0.00 | 0.00 | 99 | 1022.5 |
| 20260904095924 | 64 | 31 | 1.0 | 1.0 | 0.00 | 0.00 | 0.00 | 99 | 1022.4 |
| 20260904095803 | 64 | 33 | 1.0 | 2.0 | 0.00 | 0.00 | 0.00 | 99 | 1022.4 |
| 20260904095703 | 64 | 34 | 1.0 | 2.0 | 0.00 | 0.00 | 0.00 | 99 | 1022.2 |
| 20260904095603 | 64 | 34 | 1.0 | 2.0 | 0.00 | 0.00 | 0.00 | 99 | 1022.3 |
| 20260904095503 | 64 | 36 | 1.0 | 2.0 | 0.00 | 0.00 | 0.00 | 99 | 1022.4 |
| 20260904095403 | 64 | 35 | 1.0 | 2.0 | 0.00 | 0.00 | 0.00 | 99 | 1022.5 |
| 20260904095324 | 64 | 35 | 1.0 | 2.0 | 0.00 | 0.00 | 0.00 | 99 | 1022.5 |
| 20260904095224 | 64 | 38 | 1.0 | 2.0 | 0.00 | 0.00 | 0.00 | 99 | 1022.6 |
| 20260904095124 | 64 | 29 | 1.0 | 2.0 | 0.00 | 0.00 | 0.00 | 99 | 1022.4 |
| 20260904095003 | 64 | 30 | 1.0 | 2.0 | 0.00 | 0.00 | 0.00 | 99 | 1022.7 |
| 20260904094903 | 64 | 27 | 1.0 | 2.0 | 0.00 | 0.00 | 0.00 | 99 | 1022.7 |
| 20260904094803 | 64 | 27 | 1.0 | 2.0 | 0.00 | 0.00 | 0.00 | 99 | 1022.7 |
| 20260904094703 | 64 | 30 | 1.0 | 2.0 | 0.00 | 0.00 | 0.00 | 99 | 1022.6 |
| 20260904094603 | 64 | 30 | 1.0 | 2.0 | 0.00 | 0.00 | 0.00 | 99 | 1022.8 |
| 20260904094524 | 64 | 28 | 1.0 | 2.0 | 0.00 | 0.00 | 0.00 | 99 | 1022.7 |
| 20260904094424 | 64 | 27 | 1.0 | 2.0 | 0.00 | 0.00 | 0.00 | 99 | 1022.6 |
| 20260904094303 | 64 | 27 | 1.0 | 2.0 | 0.00 | 0.00 | 0.00 | 99 | 1022.6 |
| 20260904094203 | 64 | 28 | 1.0 | 2.0 | 0.00 | 0.00 | 0.00 | 99 | 1022.5 |
| 20260904094103 | 64 | 39 | 1.0 | 2.0 | 0.00 | 0.00 | 0.00 | 99 | 1022.6 |
| 20260904094003 | 64 | 39 | 1.0 | 2.0 | 0.00 | 0.00 | 0.00 | 99 | 1022.6 |
| 20260904093903 | 64 | 39 | 1.0 | 2.0 | 0.00 | 0.00 | 0.00 | 99 | 1022.7 |
| 20260904093803 | 64 | 39 | 1.0 | 2.0 | 0.00 | 0.00 | 0.00 | 99 | 1022.6 |
| 20260904093703 | 64 | 36 | 1.0 | 1.0 | 0.00 | 0.00 | 0.00 | 99 | 1022.7 |
| 20260904093603 | 64 | 36 | 1.0 | 1.0 | 0.00 | 0.00 | 0.00 | 99 | 1022.7 |
| 20260904093503 | 64 | 35 | 0.0 | 1.0 | 0.00 | 0.00 | 0.00 | 99 | 1022.6 |
| 20260904093403 | 64 | 36 | 0.0 | 1.0 | 0.00 | 0.00 | 0.00 | 99 | 1022.4 |
| 20260904093303 | 64 | 41 | 0.0 | 2.0 | 0.00 | 0.00 | 0.00 | 99 | 1022.5 |
| 20260904093203 | 64 | 41 | 0.0 | 2.0 | 0.00 | 0.00 | 0.00 | 99 | 1022.5 |
| 20260904093103 | 64 | 42 | 0.0 | 2.0 | 0.00 | 0.00 | 0.00 | 99 | 1022.5 |
| 20260904093003 | 63 | 47 | 1.0 | 2.0 | 0.00 | 0.00 | 0.00 | 99 | 1022.5 |
| 20260904092924 | 63 | 46 | 1.0 | 2.0 | 0.00 | 0.00 | 0.00 | 99 | 1022.5 |
| 20260904092803 | 64 | 46 | 1.0 | 2.0 | 0.00 | 0.00 | 0.00 | 99 | 1022.6 |
| 20260904092703 | 64 | 46 | 1.0 | 2.0 | 0.00 | 0.00 | 0.00 | 99 | 1022.6 |
| 20260904092603 | 63 | 47 | 1.0 | 2.0 | 0.00 | 0.00 | 0.00 | 99 | 1022.5 |
| 20260904092504 | 63 | 48 | 1.0 | 2.0 | 0.00 | 0.00 | 0.00 | 99 | 1022.5 |
| 20260904092403 | 63 | 46 | 1.0 | 2.0 | 0.00 | 0.00 | 0.00 | 99 | 1022.6 |
| 20260904092306 | 63 | 46 | 1.0 | 2.0 | 0.00 | 0.00 | 0.00 | 99 | 1022.7 |
| 20260904092203 | 63 | 48 | 1.0 | 2.0 | 0.00 | 0.00 | 0.00 | 99 | 1022.7 |
| 20260904092103 | 63 | 50 | 1.0 | 2.0 | 0.00 | 0.00 | 0.00 | 99 | 1022.9 |
| 20260904092004 | 63 | 51 | 1.0 | 2.0 | 0.00 | 0.00 | 0.00 | 99 | 1022.7 |
| 20260904091903 | 63 | 53 | 1.0 | 2.0 | 0.00 | 0.00 | 0.00 | 99 | 1022.4 |
| 20260904091824 | 63 | 55 | 2.0 | 2.0 | 0.00 | 0.00 | 0.00 | 99 | 1022.6 |
| 20260904091703 | 63 | 54 | 2.0 | 2.0 | 0.00 | 0.00 | 0.00 | 99 | 1022.8 |
| 20260904091603 | 63 | 56 | 2.0 | 2.0 | 0.00 | 0.00 | 0.00 | 99 | 1022.7 |
| 20260904091503 | 63 | 58 | 2.0 | 2.0 | 0.00 | 0.00 | 0.00 | 99 | 1022.7 |
| 20260904091403 | 62 | 59 | 2.0 | 2.0 | 0.00 | 0.00 | 0.00 | 99 | 1022.9 |
| 20260904091303 | 62 | 62 | 2.0 | 2.0 | 0.00 | 0.00 | 0.00 | 99 | 1022.9 |
| 20260904091203 | 62 | 61 | 2.0 | 2.0 | 0.00 | 0.00 | 0.00 | 99 | 1022.8 |
| 20260904091103 | 62 | 64 | 2.0 | 3.0 | 0.00 | 0.00 | 0.00 | 99 | 1022.8 |
| 20260904091003 | 62 | 64 | 2.0 | 3.0 | 0.00 | 0.00 | 0.00 | 99 | 1022.7 |
| 20260904090903 | 62 | 63 | 2.0 | 3.0 | 0.00 | 0.00 | 0.00 | 99 | 1022.8 |
| 20260904090803 | 62 | 63 | 2.0 | 3.0 | 0.00 | 0.00 | 0.00 | 99 | 1022.7 |
| 20260904090703 | 62 | 69 | 2.0 | 3.0 | 0.00 | 0.00 | 0.00 | 99 | 1022.9 |
| 20260904090603 | 62 | 69 | 2.0 | 3.0 | 0.00 | 0.00 | 0.00 | 99 | 1022.9 |
| 20260904090503 | 62 | 69 | 2.0 | 3.0 | 0.00 | 0.00 | 0.00 | 99 | 1022.7 |
| 20260904090403 | 62 | 71 | 2.0 | 3.0 | 0.00 | 0.00 | 0.00 | 99 | 1022.9 |
| 20260904090303 | 62 | 70 | 2.0 | 3.0 | 0.00 | 0.00 | 0.00 | 99 | 1022.6 |
| 20260904090203 | 62 | 70 | 2.0 | 3.0 | 0.00 | 0.00 | 0.00 | 99 | 1022.7 |
| 20260904090003 | 62 | 68 | 2.0 | 3.0 | 0.00 | 0.00 | 0.00 | 99 | 1022.9 |
| 20260904085903 | 63 | 69 | 2.0 | 3.0 | 0.00 | 0.00 | 0.00 | 99 | 1022.8 |
| 20260904085803 | 63 | 73 | 2.0 | 3.0 | 0.00 | 0.00 | 0.00 | 99 | 1022.7 |
| 20260904085703 | 63 | 70 | 2.0 | 3.0 | 0.00 | 0.00 | 0.00 | 99 | 1022.7 |
| 20260904085603 | 63 | 62 | 2.0 | 2.0 | 0.00 | 0.00 | 0.00 | 99 | 1022.7 |
| 20260904085524 | 63 | 63 | 2.0 | 2.0 | 0.00 | 0.00 | 0.00 | 99 | 1022.6 |
| 20260904085424 | 62 | 62 | 2.0 | 2.0 | 0.00 | 0.00 | 0.00 | 99 | 1022.6 |
| 20260904085324 | 62 | 63 | 2.0 | 2.0 | 0.00 | 0.00 | 0.00 | 99 | 1022.7 |
| 20260904085203 | 62 | 66 | 2.0 | 2.0 | 0.00 | 0.00 | 0.00 | 99 | 1022.6 |
| 20260904085124 | 62 | 64 | 2.0 | 2.0 | 0.00 | 0.00 | 0.00 | 99 | 1022.6 |
| 20260904085003 | 62 | 63 | 2.0 | 2.0 | 0.00 | 0.00 | 0.00 | 99 | 1022.8 |
| 20260904084924 | 62 | 65 | 2.0 | 2.0 | 0.00 | 0.00 | 0.00 | 99 | 1022.7 |
| 20260904084824 | 62 | 61 | 2.0 | 2.0 | 0.00 | 0.00 | 0.00 | 99 | 1022.7 |
| 20260904084703 | 62 | 61 | 2.0 | 2.0 | 0.00 | 0.00 | 0.00 | 99 | 1022.9 |
| 20260904084603 | 62 | 61 | 2.0 | 2.0 | 0.00 | 0.00 | 0.00 | 99 | 1022.8 |
| 20260904084503 | 62 | 63 | 2.0 | 2.0 | 0.00 | 0.00 | 0.00 | 99 | 1022.8 |
| 20260904084403 | 62 | 61 | 2.0 | 2.0 | 0.00 | 0.00 | 0.00 | 99 | 1022.8 |
| 20260904084303 | 62 | 56 | 2.0 | 2.0 | 0.00 | 0.00 | 0.00 | 99 | 1022.8 |
| 20260904084203 | 62 | 56 | 1.0 | 2.0 | 0.00 | 0.00 | 0.00 | 99 | 1022.7 |
| 20260904084103 | 62 | 50 | 1.0 | 2.0 | 0.00 | 0.00 | 0.00 | 99 | 1022.8 |
| 20260904084003 | 62 | 50 | 1.0 | 2.0 | 0.00 | 0.00 | 0.00 | 99 | 1022.7 |
| 20260904083903 | 62 | 44 | 1.0 | 2.0 | 0.00 | 0.00 | 0.00 | 99 | 1022.5 |
| 20260904083803 | 62 | 44 | 1.0 | 2.0 | 0.00 | 0.00 | 0.00 | 99 | 1022.8 |
| 20260904083724 | 62 | 39 | 1.0 | 2.0 | 0.00 | 0.00 | 0.00 | 99 | 1022.8 |
| 20260904083603 | 62 | 38 | 1.0 | 2.0 | 0.00 | 0.00 | 0.00 | 99 | 1022.8 |
| 20260904083503 | 62 | 39 | 1.0 | 2.0 | 0.00 | 0.00 | 0.00 | 99 | 1022.8 |
| 20260904083424 | 62 | 43 | 1.0 | 2.0 | 0.00 | 0.00 | 0.00 | 99 | 1022.8 |
| 20260904083324 | 62 | 44 | 1.0 | 2.0 | 0.00 | 0.00 | 0.00 | 99 | 1022.6 |
| 20260904083203 | 62 | 46 | 1.0 | 2.0 | 0.00 | 0.00 | 0.00 | 99 | 1022.8 |
| 20260904083103 | 62 | 46 | 1.0 | 2.0 | 0.00 | 0.00 | 0.00 | 99 | 1022.9 |
| 20260904083003 | 62 | 46 | 1.0 | 2.0 | 0.00 | 0.00 | 0.00 | 99 | 1023.0 |
| 20260904082903 | 62 | 46 | 1.0 | 2.0 | 0.00 | 0.00 | 0.00 | 99 | 1022.7 |
| 20260904082803 | 62 | 46 | 1.0 | 2.0 | 0.00 | 0.00 | 0.00 | 99 | 1022.9 |
| 20260904082703 | 62 | 45 | 1.0 | 2.0 | 0.00 | 0.00 | 0.00 | 99 | 1023.0 |
| 20260904082603 | 62 | 44 | 1.0 | 2.0 | 0.00 | 0.00 | 0.00 | 99 | 1022.9 |
| 20260904082503 | 62 | 42 | 1.0 | 2.0 | 0.00 | 0.00 | 0.00 | 99 | 1022.9 |
| 20260904082403 | 62 | 36 | 1.0 | 2.0 | 0.00 | 0.00 | 0.00 | 99 | 1022.8 |
| 20260904082324 | 62 | 33 | 1.0 | 2.0 | 0.00 | 0.00 | 0.00 | 99 | 1022.9 |
| 20260904082203 | 62 | 19 | 1.0 | 2.0 | 0.00 | 0.00 | 0.00 | 99 | 1022.9 |
| 20260904082124 | 62 | 17 | 1.0 | 2.0 | 0.00 | 0.00 | 0.00 | 99 | 1022.9 |
| 20260904082003 | 62 | 14 | 1.0 | 2.0 | 0.00 | 0.00 | 0.00 | 99 | 1022.8 |
| 20260904081903 | 62 | 12 | 1.0 | 2.0 | 0.00 | 0.00 | 0.00 | 99 | 1023.0 |
| 20260904081803 | 62 | 11 | 1.0 | 2.0 | 0.00 | 0.00 | 0.00 | 99 | 1022.8 |
| 20260904081703 | 62 | 10 | 1.0 | 2.0 | 0.00 | 0.00 | 0.00 | 99 | 1022.8 |
| 20260904081603 | 62 | 10 | 1.0 | 2.0 | 0.00 | 0.00 | 0.00 | 99 | 1022.8 |
| 20260904081524 | 62 | 10 | 1.0 | 2.0 | 0.00 | 0.00 | 0.00 | 99 | 1022.8 |
| 20260904081403 | 62 | 9 | 1.0 | 2.0 | 0.00 | 0.00 | 0.00 | 99 | 1022.9 |
| 20260904081303 | 62 | 6 | 1.0 | 2.0 | 0.00 | 0.00 | 0.00 | 99 | 1022.9 |
| 20260904081203 | 62 | 4 | 1.0 | 2.0 | 0.00 | 0.00 | 0.00 | 99 | 1022.7 |
| 20260904081103 | 62 | 5 | 1.0 | 2.0 | 0.00 | 0.00 | 0.00 | 99 | 1022.9 |
| 20260904081003 | 62 | 9 | 1.0 | 2.0 | 0.00 | 0.00 | 0.00 | 99 | 1022.8 |
| 20260904080903 | 62 | 13 | 1.0 | 2.0 | 0.00 | 0.00 | 0.00 | 99 | 1022.7 |
| 20260904080803 | 62 | 13 | 1.0 | 2.0 | 0.00 | 0.00 | 0.00 | 99 | 1022.8 |
| 20260904080703 | 61 | 10 | 1.0 | 2.0 | 0.00 | 0.00 | 0.00 | 99 | 1022.7 |
| 20260904080624 | 61 | 8 | 1.0 | 2.0 | 0.00 | 0.00 | 0.00 | 99 | 1022.8 |
| 20260904080503 | 61 | 354 | 1.0 | 2.0 | 0.00 | 0.00 | 0.00 | 99 | 1022.9 |
| 20260904080403 | 61 | 352 | 1.0 | 2.0 | 0.00 | 0.00 | 0.00 | 99 | 1022.7 |
| 20260904080303 | 61 | 354 | 1.0 | 2.0 | 0.00 | 0.00 | 0.00 | 99 | 1022.8 |
| 20260904080224 | 61 | 357 | 1.0 | 2.0 | 0.00 | 0.00 | 0.00 | 99 | 1022.7 |
| 20260904080003 | 61 | 358 | 1.0 | 2.0 | 0.00 | 0.00 | 0.00 | 99 | 1022.8 |
| 20260904075903 | 61 | 4 | 1.0 | 2.0 | 0.00 | 0.00 | 0.00 | 99 | 1022.6 |
| 20260904075803 | 61 | 355 | 1.0 | 2.0 | 0.00 | 0.00 | 0.00 | 99 | 1022.5 |
| 20260904075703 | 61 | 357 | 1.0 | 2.0 | 0.00 | 0.00 | 0.00 | 99 | 1022.6 |
| 20260904075603 | 61 | 355 | 1.0 | 2.0 | 0.00 | 0.00 | 0.00 | 99 | 1022.8 |
| 20260904075503 | 61 | 3 | 1.0 | 2.0 | 0.00 | 0.00 | 0.00 | 99 | 1022.6 |
| 20260904075403 | 61 | 14 | 1.0 | 2.0 | 0.00 | 0.00 | 0.00 | 99 | 1022.6 |
| 20260904075306 | 61 | 21 | 1.0 | 2.0 | 0.00 | 0.00 | 0.00 | 99 | 1022.5 |
| 20260904075203 | 61 | 21 | 1.0 | 2.0 | 0.00 | 0.00 | 0.00 | 99 | 1022.5 |
| 20260904075124 | 61 | 19 | 1.0 | 2.0 | 0.00 | 0.00 | 0.00 | 99 | 1022.4 |
| 20260904075003 | 61 | 20 | 1.0 | 2.0 | 0.00 | 0.00 | 0.00 | 99 | 1022.6 |
| 20260904074903 | 61 | 13 | 0.0 | 1.0 | 0.00 | 0.00 | 0.00 | 99 | 1022.5 |
| 20260904074803 | 61 | 13 | 0.0 | 1.0 | 0.00 | 0.00 | 0.00 | 99 | 1022.5 |
| 20260904074703 | 62 | 29 | 1.0 | 2.0 | 0.00 | 0.00 | 0.00 | 99 | 1022.6 |
| 20260904074603 | 62 | 45 | 1.0 | 3.0 | 0.00 | 0.00 | 0.00 | 99 | 1022.5 |
| 20260904074503 | 61 | 49 | 1.0 | 3.0 | 0.00 | 0.00 | 0.00 | 99 | 1022.5 |
| 20260904074403 | 61 | 49 | 1.0 | 3.0 | 0.00 | 0.00 | 0.00 | 99 | 1022.5 |
| 20260904074303 | 61 | 49 | 1.0 | 3.0 | 0.00 | 0.00 | 0.00 | 99 | 1022.4 |
| 20260904074224 | 61 | 49 | 1.0 | 3.0 | 0.00 | 0.00 | 0.00 | 99 | 1022.5 |
| 20260904074103 | 61 | 53 | 1.0 | 3.0 | 0.00 | 0.00 | 0.00 | 99 | 1022.6 |
| 20260904074003 | 61 | 53 | 1.0 | 3.0 | 0.00 | 0.00 | 0.00 | 99 | 1022.6 |
| 20260904073903 | 61 | 48 | 1.0 | 3.0 | 0.00 | 0.00 | 0.00 | 99 | 1022.5 |
| 20260904073803 | 61 | 50 | 1.0 | 3.0 | 0.00 | 0.00 | 0.00 | 99 | 1022.4 |
| 20260904073703 | 61 | 30 | 1.0 | 2.0 | 0.00 | 0.00 | 0.00 | 99 | 1022.7 |
| 20260904073603 | 61 | 30 | 1.0 | 2.0 | 0.00 | 0.00 | 0.00 | 99 | 1022.7 |
| 20260904073503 | 61 | 34 | 1.0 | 2.0 | 0.00 | 0.00 | 0.00 | 99 | 1022.5 |
| 20260904073403 | 61 | 30 | 1.0 | 2.0 | 0.00 | 0.00 | 0.00 | 99 | 1022.3 |
| 20260904073303 | 61 | 23 | 0.0 | 2.0 | 0.00 | 0.00 | 0.00 | 99 | 1022.4 |
| 20260904073203 | 61 | 23 | 0.0 | 2.0 | 0.00 | 0.00 | 0.00 | 99 | 1022.4 |
| 20260904073103 | 61 | 23 | 0.0 | 2.0 | 0.00 | 0.00 | 0.00 | 99 | 1022.3 |
| 20260904073003 | 61 | 35 | 1.0 | 2.0 | 0.00 | 0.00 | 0.00 | 99 | 1022.2 |
| 20260904072903 | 61 | 37 | 1.0 | 2.0 | 0.00 | 0.00 | 0.00 | 99 | 1022.2 |
| 20260904072824 | 61 | 37 | 1.0 | 2.0 | 0.00 | 0.00 | 0.00 | 99 | 1022.2 |
| 20260904072703 | 61 | 35 | 1.0 | 2.0 | 0.00 | 0.00 | 0.00 | 99 | 1022.4 |
| 20260904072603 | 61 | 31 | 1.0 | 2.0 | 0.00 | 0.00 | 0.00 | 99 | 1022.3 |
| 20260904072503 | 61 | 28 | 1.0 | 2.0 | 0.00 | 0.00 | 0.00 | 99 | 1022.3 |
| 20260904072403 | 61 | 31 | 1.0 | 2.0 | 0.00 | 0.00 | 0.00 | 99 | 1022.4 |
| 20260904072305 | 61 | 31 | 1.0 | 2.0 | 0.00 | 0.00 | 0.00 | 99 | 1022.3 |
| 20260904072203 | 61 | 31 | 1.0 | 2.0 | 0.00 | 0.00 | 0.00 | 99 | 1022.3 |
| 20260904072103 | 61 | 24 | 1.0 | 2.0 | 0.00 | 0.00 | 0.00 | 99 | 1022.3 |
| 20260904072003 | 61 | 24 | 1.0 | 2.0 | 0.00 | 0.00 | 0.00 | 99 | 1022.3 |
| 20260904071903 | 61 | 9 | 1.0 | 2.0 | 0.00 | 0.00 | 0.00 | 99 | 1022.2 |
| 20260904071803 | 61 | 16 | 1.0 | 2.0 | 0.00 | 0.00 | 0.00 | 99 | 1022.4 |
| 20260904071703 | 61 | 29 | 1.0 | 2.0 | 0.00 | 0.00 | 0.00 | 99 | 1022.3 |
| 20260904071603 | 61 | 29 | 1.0 | 2.0 | 0.00 | 0.00 | 0.00 | 99 | 1022.3 |
| 20260904071504 | 61 | 39 | 1.0 | 2.0 | 0.00 | 0.00 | 0.00 | 99 | 1022.3 |
| 20260904071403 | 61 | 34 | 1.0 | 2.0 | 0.00 | 0.00 | 0.00 | 99 | 1022.4 |
| 20260904071303 | 61 | 32 | 1.0 | 2.0 | 0.00 | 0.00 | 0.00 | 99 | 1022.4 |
| 20260904071224 | 61 | 32 | 1.0 | 2.0 | 0.00 | 0.00 | 0.00 | 99 | 1022.4 |
| 20260904071103 | 61 | 26 | 1.0 | 2.0 | 0.00 | 0.00 | 0.00 | 99 | 1022.2 |
| 20260904071003 | 61 | 31 | 1.0 | 2.0 | 0.00 | 0.00 | 0.00 | 99 | 1022.2 |
| 20260904070903 | 61 | 36 | 1.0 | 2.0 | 0.00 | 0.00 | 0.00 | 99 | 1022.0 |
| 20260904070803 | 61 | 36 | 1.0 | 2.0 | 0.00 | 0.00 | 0.00 | 99 | 1022.0 |
| 20260904070703 | 61 | 23 | 1.0 | 2.0 | 0.00 | 0.00 | 0.00 | 99 | 1022.2 |
| 20260904070603 | 61 | 11 | 1.0 | 2.0 | 0.00 | 0.00 | 0.00 | 99 | 1022.0 |
| 20260904070503 | 61 | 10 | 1.0 | 2.0 | 0.00 | 0.00 | 0.00 | 99 | 1022.1 |
| 20260904070403 | 61 | 10 | 1.0 | 2.0 | 0.00 | 0.00 | 0.00 | 99 | 1022.1 |
| 20260904070324 | 61 | 7 | 1.0 | 2.0 | 0.00 | 0.00 | 0.00 | 99 | 1021.9 |
| 20260904070203 | 61 | 8 | 1.0 | 2.0 | 0.00 | 0.00 | 0.00 | 99 | 1022.0 |
| 20260904070124 | 61 | 10 | 1.0 | 2.0 | 0.00 | 0.00 | 0.00 | 99 | 1022.1 |
| 20260904070024 | 61 | 10 | 1.0 | 2.0 | 0.00 | 0.00 | 0.00 | 99 | 1022.0 |
| 20260904065903 | 61 | 14 | 1.0 | 2.0 | 0.00 | 0.00 | 0.00 | 99 | 1021.9 |
| 20260904065824 | 61 | 17 | 1.0 | 2.0 | 0.00 | 0.00 | 0.00 | 99 | 1022.0 |
| 20260904065703 | 61 | 25 | 1.0 | 1.0 | 0.00 | 0.00 | 0.00 | 99 | 1021.8 |
| 20260904065603 | 61 | 25 | 1.0 | 1.0 | 0.00 | 0.00 | 0.00 | 99 | 1021.8 |
| 20260904065524 | 61 | 27 | 1.0 | 1.0 | 0.00 | 0.00 | 0.00 | 99 | 1021.9 |
| 20260904065403 | 61 | 30 | 1.0 | 1.0 | 0.00 | 0.00 | 0.00 | 99 | 1021.8 |
| 20260904065306 | 61 | 32 | 1.0 | 1.0 | 0.00 | 0.00 | 0.00 | 99 | 1021.8 |
| 20260904065203 | 61 | 32 | 1.0 | 1.0 | 0.00 | 0.00 | 0.00 | 99 | 1021.8 |
| 20260904065124 | 61 | 33 | 1.0 | 1.0 | 0.00 | 0.00 | 0.00 | 99 | 1021.8 |
| 20260904065003 | 61 | 31 | 1.0 | 1.0 | 0.00 | 0.00 | 0.00 | 99 | 1021.7 |
| 20260904064903 | 61 | 31 | 1.0 | 1.0 | 0.00 | 0.00 | 0.00 | 99 | 1021.7 |
| 20260904064803 | 61 | 31 | 1.0 | 1.0 | 0.00 | 0.00 | 0.00 | 99 | 1021.7 |
| 20260904064724 | 61 | 30 | 0.0 | 1.0 | 0.00 | 0.00 | 0.00 | 99 | 1021.8 |
| 20260904064603 | 61 | 30 | 0.0 | 1.0 | 0.00 | 0.00 | 0.00 | 99 | 1021.8 |
| 20260904064503 | 61 | 29 | 0.0 | 1.0 | 0.00 | 0.00 | 0.00 | 99 | 1021.6 |
| 20260904064424 | 61 | 29 | 0.0 | 1.0 | 0.00 | 0.00 | 0.00 | 99 | 1021.6 |
| 20260904064303 | 61 | 29 | 0.0 | 1.0 | 0.00 | 0.00 | 0.00 | 99 | 1021.7 |
| 20260904064203 | 61 | 29 | 0.0 | 1.0 | 0.00 | 0.00 | 0.00 | 99 | 1021.7 |
| 20260904064103 | 61 | 29 | 0.0 | 1.0 | 0.00 | 0.00 | 0.00 | 99 | 1021.6 |
| 20260904064003 | 61 | 29 | 0.0 | 1.0 | 0.00 | 0.00 | 0.00 | 99 | 1021.6 |
| 20260904063924 | 61 | 30 | 0.0 | 1.0 | 0.00 | 0.00 | 0.00 | 99 | 1021.6 |
| 20260904063803 | 61 | 30 | 0.0 | 1.0 | 0.00 | 0.00 | 0.00 | 99 | 1021.7 |
| 20260904063704 | 61 | 30 | 0.0 | 1.0 | 0.00 | 0.00 | 0.00 | 99 | 1021.5 |
| 20260904063624 | 61 | 30 | 0.0 | 1.0 | 0.00 | 0.00 | 0.00 | 99 | 1021.5 |
| 20260904063503 | 61 | 29 | 0.0 | 1.0 | 0.00 | 0.00 | 0.00 | 99 | 1021.6 |
| 20260904063403 | 61 | 29 | 0.0 | 1.0 | 0.00 | 0.00 | 0.00 | 99 | 1021.5 |
| 20260904063324 | 61 | 30 | 0.0 | 1.0 | 0.00 | 0.00 | 0.00 | 99 | 1021.6 |
| 20260904063203 | 61 | 30 | 0.0 | 1.0 | 0.00 | 0.00 | 0.00 | 99 | 1021.4 |
| 20260904063103 | 61 | 29 | 0.0 | 1.0 | 0.00 | 0.00 | 0.00 | 99 | 1021.3 |
| 20260904063024 | 61 | 29 | 1.0 | 1.0 | 0.00 | 0.00 | 0.00 | 99 | 1021.3 |
| 20260904062903 | 61 | 28 | 1.0 | 1.0 | 0.00 | 0.00 | 0.00 | 99 | 1021.3 |
| 20260904062803 | 61 | 29 | 1.0 | 1.0 | 0.00 | 0.00 | 0.00 | 99 | 1021.2 |
| 20260904062703 | 61 | 29 | 0.0 | 1.0 | 0.00 | 0.00 | 0.00 | 99 | 1021.4 |
| 20260904062603 | 61 | 29 | 0.0 | 1.0 | 0.00 | 0.00 | 0.00 | 99 | 1021.4 |
| 20260904062503 | 61 | 29 | 1.0 | 1.0 | 0.00 | 0.00 | 0.00 | 99 | 1021.4 |
| 20260904062403 | 61 | 29 | 1.0 | 1.0 | 0.00 | 0.00 | 0.00 | 99 | 1021.4 |
| 20260904062306 | 61 | 28 | 1.0 | 1.0 | 0.00 | 0.00 | 0.00 | 99 | 1021.4 |
| 20260904062203 | 61 | 29 | 1.0 | 1.0 | 0.00 | 0.00 | 0.00 | 99 | 1021.2 |
| 20260904062103 | 61 | 31 | 1.0 | 1.0 | 0.00 | 0.00 | 0.00 | 99 | 1021.2 |
| 20260904062003 | 61 | 31 | 1.0 | 1.0 | 0.00 | 0.00 | 0.00 | 99 | 1021.2 |
| 20260904061903 | 61 | 33 | 1.0 | 1.0 | 0.00 | 0.00 | 0.00 | 99 | 1021.0 |
| 20260904061803 | 61 | 33 | 1.0 | 1.0 | 0.00 | 0.00 | 0.00 | 99 | 1021.4 |
| 20260904061703 | 61 | 33 | 1.0 | 1.0 | 0.00 | 0.00 | 0.00 | 99 | 1021.1 |
| 20260904061603 | 61 | 33 | 1.0 | 1.0 | 0.00 | 0.00 | 0.00 | 99 | 1021.1 |
| 20260904061503 | 61 | 34 | 1.0 | 1.0 | 0.00 | 0.00 | 0.00 | 99 | 1021.1 |
| 20260904061403 | 61 | 34 | 1.0 | 1.0 | 0.00 | 0.00 | 0.00 | 99 | 1021.2 |
| 20260904061303 | 61 | 34 | 1.0 | 1.0 | 0.00 | 0.00 | 0.00 | 99 | 1021.2 |
| 20260904061203 | 61 | 34 | 1.0 | 1.0 | 0.00 | 0.00 | 0.00 | 99 | 1021.2 |
| 20260904061104 | 61 | 34 | 1.0 | 1.0 | 0.00 | 0.00 | 0.00 | 99 | 1021.0 |
| 20260904061003 | 61 | 34 | 1.0 | 1.0 | 0.00 | 0.00 | 0.00 | 99 | 1021.1 |
| 20260904060903 | 61 | 33 | 0.0 | 1.0 | 0.00 | 0.00 | 0.00 | 99 | 1021.1 |
| 20260904060803 | 61 | 33 | 0.0 | 1.0 | 0.00 | 0.00 | 0.00 | 99 | 1021.1 |
| 20260904060703 | 61 | 34 | 0.0 | 1.0 | 0.00 | 0.00 | 0.00 | 99 | 1021.1 |
| 20260904060603 | 61 | 34 | 0.0 | 1.0 | 0.00 | 0.00 | 0.00 | 99 | 1021.2 |
| 20260904060503 | 61 | 32 | 0.0 | 1.0 | 0.00 | 0.00 | 0.00 | 99 | 1021.1 |
| 20260904060403 | 61 | 32 | 0.0 | 1.0 | 0.00 | 0.00 | 0.00 | 99 | 1021.1 |
| 20260904060303 | 61 | 32 | 0.0 | 1.0 | 0.00 | 0.00 | 0.00 | 99 | 1021.1 |
| 20260904060204 | 61 | 32 | 0.0 | 1.0 | 0.00 | 0.00 | 0.00 | 99 | 1021.1 |
| 20260904060103 | 61 | 32 | 0.0 | 1.0 | 0.00 | 0.00 | 0.00 | 99 | 1021.2 |
| 20260904060003 | 61 | 32 | 0.0 | 1.0 | 0.00 | 0.00 | 0.00 | 99 | 1021.0 |
| 20260904055903 | 61 | 32 | 0.0 | 1.0 | 0.00 | 0.00 | 0.00 | 99 | 1021.1 |
| 20260904055824 | 61 | 32 | 0.0 | 1.0 | 0.00 | 0.00 | 0.00 | 99 | 1021.1 |
| 20260904055703 | 61 | 30 | 0.0 | 1.0 | 0.00 | 0.00 | 0.00 | 99 | 1020.9 |
| 20260904055603 | 61 | 30 | 0.0 | 1.0 | 0.00 | 0.00 | 0.00 | 99 | 1020.9 |
| 20260904055503 | 61 | 30 | 0.0 | 1.0 | 0.00 | 0.00 | 0.00 | 99 | 1020.9 |
| 20260904055403 | 61 | 32 | 0.0 | 1.0 | 0.00 | 0.00 | 0.00 | 99 | 1020.9 |
| 20260904055306 | 61 | 32 | 0.0 | 1.0 | 0.00 | 0.00 | 0.00 | 99 | 1020.9 |
| 20260904055203 | 61 | 32 | 0.0 | 1.0 | 0.00 | 0.00 | 0.00 | 99 | 1020.9 |
| 20260904055103 | 60 | 32 | 0.0 | 1.0 | 0.00 | 0.00 | 0.00 | 99 | 1021.0 |
| 20260904055003 | 60 | 32 | 0.0 | 1.0 | 0.00 | 0.00 | 0.00 | 99 | 1021.0 |
| 20260904054903 | 60 | 34 | 0.0 | 1.0 | 0.00 | 0.00 | 0.00 | 99 | 1021.0 |
| 20260904054803 | 60 | 34 | 0.0 | 1.0 | 0.00 | 0.00 | 0.00 | 99 | 1021.0 |
| 20260904054703 | 60 | 34 | 0.0 | 1.0 | 0.00 | 0.00 | 0.00 | 99 | 1020.9 |
| 20260904054603 | 60 | 35 | 1.0 | 1.0 | 0.00 | 0.00 | 0.00 | 99 | 1020.8 |
| 20260904054503 | 60 | 35 | 1.0 | 1.0 | 0.00 | 0.00 | 0.00 | 99 | 1021.0 |
| 20260904054403 | 60 | 36 | 1.0 | 1.0 | 0.00 | 0.00 | 0.00 | 99 | 1020.8 |
| 20260904054324 | 60 | 38 | 1.0 | 1.0 | 0.00 | 0.00 | 0.00 | 99 | 1020.9 |
| 20260904054204 | 60 | 38 | 1.0 | 1.0 | 0.00 | 0.00 | 0.00 | 99 | 1021.0 |
| 20260904054103 | 60 | 39 | 1.0 | 2.0 | 0.00 | 0.00 | 0.00 | 99 | 1021.0 |
| 20260904054003 | 60 | 41 | 1.0 | 2.0 | 0.00 | 0.00 | 0.00 | 99 | 1020.7 |
| 20260904053903 | 60 | 40 | 1.0 | 2.0 | 0.00 | 0.00 | 0.00 | 99 | 1021.0 |
| 20260904053803 | 60 | 40 | 1.0 | 2.0 | 0.00 | 0.00 | 0.00 | 99 | 1020.9 |
| 20260904053703 | 60 | 40 | 1.0 | 2.0 | 0.00 | 0.00 | 0.00 | 99 | 1020.8 |
| 20260904053624 | 60 | 40 | 1.0 | 2.0 | 0.00 | 0.00 | 0.00 | 99 | 1020.8 |
| 20260904053503 | 60 | 40 | 1.0 | 2.0 | 0.00 | 0.00 | 0.00 | 99 | 1020.8 |
| 20260904053403 | 60 | 39 | 1.0 | 2.0 | 0.00 | 0.00 | 0.00 | 99 | 1020.9 |
| 20260904053303 | 60 | 39 | 1.0 | 2.0 | 0.00 | 0.00 | 0.00 | 99 | 1020.8 |
| 20260904053203 | 60 | 38 | 1.0 | 2.0 | 0.00 | 0.00 | 0.00 | 99 | 1020.8 |
| 20260904053103 | 61 | 35 | 1.0 | 1.0 | 0.00 | 0.00 | 0.00 | 99 | 1020.8 |
| 20260904053024 | 61 | 34 | 1.0 | 1.0 | 0.00 | 0.00 | 0.00 | 99 | 1020.8 |
| 20260904052903 | 61 | 33 | 1.0 | 1.0 | 0.00 | 0.00 | 0.00 | 99 | 1020.8 |
| 20260904052824 | 61 | 33 | 1.0 | 1.0 | 0.00 | 0.00 | 0.00 | 99 | 1020.9 |
| 20260904052703 | 61 | 32 | 1.0 | 1.0 | 0.00 | 0.00 | 0.00 | 99 | 1020.6 |
| 20260904052603 | 61 | 32 | 1.0 | 1.0 | 0.00 | 0.00 | 0.00 | 99 | 1020.7 |
| 20260904052503 | 61 | 31 | 1.0 | 1.0 | 0.00 | 0.00 | 0.00 | 99 | 1020.7 |
| 20260904052403 | 61 | 31 | 1.0 | 1.0 | 0.00 | 0.00 | 0.00 | 99 | 1020.7 |
| 20260904052306 | 61 | 31 | 0.0 | 1.0 | 0.00 | 0.00 | 0.00 | 99 | 1020.7 |
| 20260904052203 | 61 | 30 | 0.0 | 1.0 | 0.00 | 0.00 | 0.00 | 99 | 1020.7 |
| 20260904052103 | 61 | 28 | 0.0 | 1.0 | 0.00 | 0.00 | 0.00 | 99 | 1020.8 |
| 20260904052003 | 61 | 28 | 0.0 | 1.0 | 0.00 | 0.00 | 0.00 | 99 | 1020.8 |
| 20260904051924 | 60 | 28 | 0.0 | 1.0 | 0.00 | 0.00 | 0.00 | 99 | 1020.6 |
| 20260904051824 | 60 | 28 | 0.0 | 1.0 | 0.00 | 0.00 | 0.00 | 99 | 1020.8 |
| 20260904051703 | 60 | 28 | 0.0 | 1.0 | 0.00 | 0.00 | 0.00 | 99 | 1020.7 |
| 20260904051603 | 60 | 28 | 0.0 | 1.0 | 0.00 | 0.00 | 0.00 | 99 | 1020.7 |
| 20260904051503 | 60 | 0 | 0.0 | 0.0 | 0.00 | 0.00 | 0.00 | 99 | 1020.8 |
| 20260904051403 | 60 | 0 | 0.0 | 0.0 | 0.00 | 0.00 | 0.00 | 99 | 1020.8 |
| 20260904051303 | 60 | 35 | 0.0 | 1.0 | 0.00 | 0.00 | 0.00 | 99 | 1020.8 |
| 20260904051203 | 60 | 35 | 0.0 | 1.0 | 0.00 | 0.00 | 0.00 | 99 | 1020.8 |
| 20260904051124 | 60 | 35 | 0.0 | 1.0 | 0.00 | 0.00 | 0.00 | 99 | 1020.7 |
| 20260904051003 | 60 | 36 | 0.0 | 1.0 | 0.00 | 0.00 | 0.00 | 99 | 1020.8 |
| 20260904050903 | 60 | 36 | 0.0 | 1.0 | 0.00 | 0.00 | 0.00 | 99 | 1020.7 |
| 20260904050803 | 60 | 36 | 0.0 | 1.0 | 0.00 | 0.00 | 0.00 | 99 | 1020.7 |
| 20260904050704 | 60 | 35 | 0.0 | 1.0 | 0.00 | 0.00 | 0.00 | 99 | 1020.6 |
| 20260904050603 | 60 | 35 | 1.0 | 1.0 | 0.00 | 0.01 | 0.00 | 99 | 1020.7 |
| 20260904050503 | 60 | 36 | 1.0 | 1.0 | 0.00 | 0.01 | 0.00 | 99 | 1020.8 |
| 20260904050403 | 60 | 36 | 1.0 | 1.0 | 0.00 | 0.01 | 0.00 | 99 | 1020.9 |
| 20260904050303 | 60 | 35 | 1.0 | 1.0 | 0.00 | 0.01 | 0.00 | 99 | 1020.6 |
| 20260904050203 | 60 | 35 | 1.0 | 1.0 | 0.00 | 0.01 | 0.00 | 99 | 1020.7 |
| 20260904050124 | 60 | 35 | 1.0 | 1.0 | 0.00 | 0.01 | 0.00 | 99 | 1020.6 |
| 20260904050003 | 60 | 34 | 1.0 | 1.0 | 0.00 | 0.01 | 0.00 | 99 | 1020.8 |
| 20260904045903 | 60 | 34 | 1.0 | 1.0 | 0.00 | 0.01 | 0.00 | 99 | 1020.8 |
| 20260904045803 | 60 | 34 | 1.0 | 1.0 | 0.00 | 0.01 | 0.00 | 99 | 1020.8 |
| 20260904045703 | 60 | 33 | 0.0 | 1.0 | 0.00 | 0.01 | 0.00 | 99 | 1020.6 |
| 20260904045603 | 60 | 33 | 0.0 | 1.0 | 0.00 | 0.01 | 0.00 | 99 | 1020.6 |
| 20260904045524 | 60 | 33 | 0.0 | 1.0 | 0.00 | 0.01 | 0.00 | 99 | 1020.9 |
| 20260904045403 | 60 | 32 | 0.0 | 1.0 | 0.00 | 0.01 | 0.00 | 99 | 1020.8 |
| 20260904045324 | 60 | 32 | 0.0 | 1.0 | 0.00 | 0.01 | 0.00 | 99 | 1020.8 |
| 20260904045203 | 60 | 32 | 0.0 | 1.0 | 0.00 | 0.01 | 0.00 | 99 | 1020.9 |
| 20260904045103 | 60 | 31 | 0.0 | 1.0 | 0.00 | 0.01 | 0.00 | 99 | 1020.9 |
| 20260904045003 | 60 | 31 | 0.0 | 1.0 | 0.00 | 0.01 | 0.00 | 99 | 1020.6 |
| 20260904044924 | 60 | 32 | 0.0 | 1.0 | 0.00 | 0.01 | 0.00 | 99 | 1020.8 |
| 20260904044804 | 60 | 32 | 0.0 | 1.0 | 0.00 | 0.01 | 0.00 | 99 | 1021.0 |
| 20260904044703 | 60 | 32 | 0.0 | 1.0 | 0.00 | 0.01 | 0.00 | 99 | 1020.8 |
| 20260904044603 | 60 | 32 | 0.0 | 1.0 | 0.00 | 0.01 | 0.00 | 99 | 1020.7 |
| 20260904044503 | 60 | 32 | 0.0 | 1.0 | 0.00 | 0.01 | 0.00 | 99 | 1020.7 |
| 20260904044403 | 60 | 32 | 0.0 | 1.0 | 0.00 | 0.01 | 0.00 | 99 | 1020.7 |
| 20260904044303 | 60 | 33 | 1.0 | 1.0 | 0.00 | 0.01 | 0.00 | 99 | 1020.8 |
| 20260904044203 | 60 | 32 | 1.0 | 1.0 | 0.00 | 0.01 | 0.00 | 99 | 1020.6 |
| 20260904044124 | 60 | 33 | 1.0 | 1.0 | 0.00 | 0.01 | 0.00 | 99 | 1020.8 |
| 20260904044003 | 60 | 33 | 1.0 | 1.0 | 0.00 | 0.01 | 0.00 | 99 | 1020.8 |
| 20260904043903 | 60 | 34 | 1.0 | 1.0 | 0.00 | 0.01 | 0.00 | 99 | 1020.7 |
| 20260904043804 | 60 | 34 | 1.0 | 1.0 | 0.00 | 0.01 | 0.00 | 99 | 1020.7 |
| 20260904043724 | 60 | 33 | 1.0 | 1.0 | 0.00 | 0.01 | 0.00 | 99 | 1020.8 |
| 20260904043624 | 60 | 34 | 1.0 | 1.0 | 0.00 | 0.01 | 0.00 | 99 | 1020.7 |
| 20260904043524 | 60 | 33 | 1.0 | 1.0 | 0.00 | 0.01 | 0.00 | 99 | 1020.7 |
| 20260904043403 | 60 | 33 | 1.0 | 1.0 | 0.00 | 0.01 | 0.00 | 99 | 1020.8 |
| 20260904043325 | 60 | 32 | 1.0 | 1.0 | 0.00 | 0.01 | 0.00 | 99 | 1020.9 |
| 20260904043203 | 60 | 32 | 1.0 | 1.0 | 0.00 | 0.01 | 0.00 | 99 | 1020.9 |
| 20260904043103 | 60 | 33 | 1.0 | 1.0 | 0.00 | 0.01 | 0.00 | 99 | 1020.7 |
| 20260904043024 | 60 | 33 | 1.0 | 1.0 | 0.00 | 0.01 | 0.00 | 99 | 1020.8 |
| 20260904042903 | 60 | 34 | 1.0 | 1.0 | 0.00 | 0.01 | 0.00 | 99 | 1020.9 |
| 20260904042824 | 60 | 34 | 1.0 | 1.0 | 0.00 | 0.01 | 0.00 | 99 | 1020.9 |
| 20260904042703 | 60 | 33 | 1.0 | 1.0 | 0.00 | 0.01 | 0.00 | 99 | 1020.9 |
| 20260904042624 | 60 | 34 | 1.0 | 1.0 | 0.00 | 0.01 | 0.00 | 99 | 1020.8 |
| 20260904042524 | 60 | 35 | 1.0 | 1.0 | 0.00 | 0.01 | 0.00 | 99 | 1020.8 |
| 20260904042403 | 60 | 36 | 1.0 | 1.0 | 0.00 | 0.01 | 0.00 | 99 | 1020.8 |
| 20260904042306 | 60 | 37 | 1.0 | 1.0 | 0.00 | 0.01 | 0.00 | 99 | 1020.8 |
| 20260904042224 | 60 | 37 | 1.0 | 2.0 | 0.00 | 0.01 | 0.00 | 99 | 1020.8 |
| 20260904042103 | 60 | 37 | 1.0 | 2.0 | 0.00 | 0.01 | 0.00 | 99 | 1020.7 |
| 20260904042003 | 60 | 37 | 1.0 | 2.0 | 0.00 | 0.01 | 0.00 | 99 | 1020.7 |
| 20260904041903 | 60 | 36 | 1.0 | 2.0 | 0.00 | 0.01 | 0.00 | 99 | 1020.9 |
| 20260904041824 | 60 | 35 | 1.0 | 2.0 | 0.00 | 0.01 | 0.00 | 99 | 1020.9 |
| 20260904041703 | 60 | 34 | 1.0 | 2.0 | 0.00 | 0.01 | 0.00 | 99 | 1020.8 |
| 20260904041603 | 60 | 34 | 1.0 | 2.0 | 0.00 | 0.01 | 0.00 | 99 | 1020.8 |
| 20260904041524 | 60 | 30 | 1.0 | 2.0 | 0.00 | 0.01 | 0.00 | 99 | 1020.9 |
| 20260904041403 | 60 | 23 | 1.0 | 2.0 | 0.00 | 0.01 | 0.00 | 99 | 1020.9 |
| 20260904041303 | 60 | 17 | 1.0 | 2.0 | 0.00 | 0.01 | 0.00 | 99 | 1020.8 |
| 20260904041224 | 60 | 17 | 1.0 | 2.0 | 0.00 | 0.01 | 0.00 | 99 | 1020.8 |
| 20260904041103 | 60 | 12 | 1.0 | 1.0 | 0.00 | 0.01 | 0.00 | 99 | 1020.7 |
| 20260904041003 | 60 | 8 | 1.0 | 1.0 | 0.00 | 0.01 | 0.00 | 99 | 1020.9 |
| 20260904040903 | 60 | 360 | 1.0 | 1.0 | 0.00 | 0.01 | 0.00 | 99 | 1021.0 |
| 20260904040803 | 60 | 360 | 1.0 | 1.0 | 0.00 | 0.01 | 0.00 | 99 | 1021.0 |
| 20260904040703 | 60 | 355 | 0.0 | 1.0 | 0.00 | 0.01 | 0.00 | 99 | 1020.9 |
| 20260904040603 | 60 | 350 | 0.0 | 1.0 | 0.00 | 0.01 | 0.00 | 99 | 1020.9 |
| 20260904040524 | 60 | 350 | 0.0 | 1.0 | 0.00 | 0.01 | 0.00 | 99 | 1020.9 |
| 20260904040424 | 60 | 350 | 0.0 | 1.0 | 0.00 | 0.01 | 0.00 | 99 | 1020.9 |
| 20260904040303 | 61 | 350 | 0.0 | 1.0 | 0.00 | 0.01 | 0.00 | 99 | 1020.8 |
| 20260904040204 | 61 | 350 | 0.0 | 1.0 | 0.00 | 0.01 | 0.00 | 99 | 1021.1 |
| 20260904040103 | 61 | 350 | 0.0 | 1.0 | 0.00 | 0.01 | 0.00 | 99 | 1021.0 |
| 20260904040004 | 61 | 350 | 0.0 | 1.0 | 0.00 | 0.01 | 0.00 | 99 | 1021.0 |
| 20260904035903 | 61 | 350 | 0.0 | 1.0 | 0.00 | 0.01 | 0.00 | 99 | 1021.0 |
| 20260904035824 | 61 | 350 | 0.0 | 1.0 | 0.00 | 0.01 | 0.00 | 99 | 1020.9 |
| 20260904035724 | 61 | 350 | 0.0 | 1.0 | 0.00 | 0.01 | 0.00 | 99 | 1020.8 |
| 20260904035624 | 61 | 350 | 0.0 | 1.0 | 0.00 | 0.01 | 0.00 | 99 | 1020.9 |
| 20260904035503 | 61 | 350 | 0.0 | 1.0 | 0.00 | 0.01 | 0.00 | 99 | 1021.0 |
| 20260904035403 | 61 | 350 | 0.0 | 1.0 | 0.00 | 0.01 | 0.00 | 99 | 1020.9 |
| 20260904035324 | 61 | 350 | 0.0 | 1.0 | 0.00 | 0.01 | 0.00 | 99 | 1021.1 |
| 20260904035203 | 61 | 350 | 0.0 | 1.0 | 0.00 | 0.01 | 0.00 | 99 | 1021.0 |
| 20260904035103 | 61 | 350 | 0.0 | 1.0 | 0.00 | 0.01 | 0.00 | 99 | 1021.0 |
| 20260904035003 | 61 | 350 | 0.0 | 1.0 | 0.00 | 0.01 | 0.00 | 99 | 1021.0 |
| 20260904034903 | 61 | 350 | 0.0 | 1.0 | 0.00 | 0.01 | 0.00 | 99 | 1021.0 |
| 20260904034803 | 61 | 350 | 0.0 | 1.0 | 0.00 | 0.01 | 0.00 | 99 | 1021.0 |
| 20260904034703 | 61 | 350 | 0.0 | 1.0 | 0.00 | 0.01 | 0.00 | 99 | 1021.0 |
| 20260904034624 | 61 | 350 | 0.0 | 1.0 | 0.00 | 0.01 | 0.00 | 99 | 1021.0 |
| 20260904034504 | 61 | 350 | 0.0 | 1.0 | 0.00 | 0.01 | 0.00 | 99 | 1021.0 |
| 20260904034403 | 61 | 350 | 0.0 | 1.0 | 0.00 | 0.01 | 0.00 | 99 | 1021.0 |
| 20260904034303 | 61 | 350 | 0.0 | 1.0 | 0.00 | 0.01 | 0.00 | 99 | 1021.0 |
| 20260904034203 | 61 | 350 | 0.0 | 1.0 | 0.00 | 0.01 | 0.00 | 99 | 1021.0 |
| 20260904034124 | 61 | 350 | 0.0 | 1.0 | 0.00 | 0.01 | 0.00 | 99 | 1021.2 |
| 20260904034003 | 61 | 350 | 0.0 | 1.0 | 0.00 | 0.01 | 0.00 | 99 | 1021.1 |
| 20260904033904 | 61 | 0 | 0.0 | 0.0 | 0.00 | 0.01 | 0.00 | 99 | 1021.2 |
| 20260904033803 | 61 | 350 | 0.0 | 1.0 | 0.00 | 0.01 | 0.00 | 99 | 1021.2 |
| 20260904033703 | 61 | 350 | 0.0 | 1.0 | 0.00 | 0.01 | 0.00 | 99 | 1021.1 |
| 20260904033603 | 61 | 350 | 0.0 | 1.0 | 0.00 | 0.01 | 0.00 | 99 | 1021.1 |
| 20260904033503 | 61 | 350 | 0.0 | 1.0 | 0.00 | 0.01 | 0.00 | 99 | 1021.1 |
| 20260904033403 | 61 | 350 | 0.0 | 1.0 | 0.00 | 0.01 | 0.00 | 99 | 1020.9 |
| 20260904033303 | 61 | 350 | 0.0 | 1.0 | 0.00 | 0.01 | 0.00 | 99 | 1021.1 |
| 20260904033203 | 61 | 350 | 0.0 | 1.0 | 0.00 | 0.01 | 0.00 | 99 | 1021.1 |
| 20260904033103 | 61 | 350 | 0.0 | 1.0 | 0.00 | 0.01 | 0.00 | 99 | 1021.2 |
| 20260904033003 | 61 | 350 | 0.0 | 1.0 | 0.00 | 0.01 | 0.00 | 99 | 1021.1 |
| 20260904032903 | 60 | 0 | 0.0 | 0.0 | 0.00 | 0.01 | 0.00 | 99 | 1021.1 |
| 20260904032803 | 60 | 0 | 0.0 | 0.0 | 0.00 | 0.01 | 0.00 | 99 | 1021.1 |
| 20260904032703 | 60 | 0 | 0.0 | 0.0 | 0.00 | 0.01 | 0.00 | 99 | 1021.0 |
| 20260904032624 | 60 | 0 | 0.0 | 0.0 | 0.00 | 0.01 | 0.00 | 99 | 1021.0 |
| 20260904032504 | 60 | 0 | 0.0 | 0.0 | 0.00 | 0.01 | 0.00 | 99 | 1020.9 |
| 20260904032403 | 60 | 0 | 0.0 | 0.0 | 0.00 | 0.01 | 0.00 | 99 | 1021.0 |
| 20260904032305 | 60 | 0 | 0.0 | 0.0 | 0.00 | 0.01 | 0.00 | 99 | 1021.0 |
| 20260904032203 | 60 | 0 | 0.0 | 0.0 | 0.00 | 0.01 | 0.00 | 99 | 1021.1 |
| 20260904032103 | 60 | 0 | 0.0 | 0.0 | 0.00 | 0.01 | 0.00 | 99 | 1020.9 |
| 20260904032003 | 60 | 0 | 0.0 | 0.0 | 0.00 | 0.01 | 0.00 | 99 | 1020.9 |
| 20260904031903 | 60 | 0 | 0.0 | 0.0 | 0.00 | 0.01 | 0.00 | 99 | 1021.2 |
| 20260904031803 | 60 | 0 | 0.0 | 0.0 | 0.00 | 0.01 | 0.00 | 99 | 1020.9 |
| 20260904031702 | 60 | 0 | 0.0 | 0.0 | 0.00 | 0.01 | 0.00 | 99 | 1020.9 |
| 20260904031602 | 60 | 0 | 0.0 | 0.0 | 0.00 | 0.01 | 0.00 | 99 | 1020.9 |
| 20260904031503 | 60 | 350 | 0.0 | 1.0 | 0.00 | 0.01 | 0.00 | 99 | 1021.1 |
| 20260904031403 | 60 | 350 | 0.0 | 1.0 | 0.00 | 0.01 | 0.00 | 99 | 1021.1 |
| 20260904031303 | 60 | 350 | 0.0 | 1.0 | 0.00 | 0.01 | 0.00 | 99 | 1021.0 |
| 20260904031203 | 60 | 350 | 0.0 | 1.0 | 0.00 | 0.01 | 0.00 | 99 | 1021.0 |
| 20260904031103 | 60 | 350 | 0.0 | 1.0 | 0.00 | 0.01 | 0.00 | 99 | 1021.1 |
| 20260904031003 | 60 | 350 | 0.0 | 1.0 | 0.00 | 0.01 | 0.00 | 99 | 1021.2 |
| 20260904030903 | 61 | 350 | 0.0 | 1.0 | 0.00 | 0.01 | 0.00 | 99 | 1021.1 |
| 20260904030803 | 61 | 350 | 0.0 | 1.0 | 0.00 | 0.01 | 0.00 | 99 | 1021.1 |
| 20260904030703 | 61 | 350 | 0.0 | 1.0 | 0.00 | 0.01 | 0.00 | 99 | 1021.1 |
| 20260904030603 | 61 | 350 | 0.0 | 1.0 | 0.00 | 0.01 | 0.00 | 99 | 1021.2 |
| 20260904030502 | 61 | 0 | 0.0 | 0.0 | 0.00 | 0.01 | 0.00 | 99 | 1021.1 |
| 20260904030402 | 61 | 0 | 0.0 | 0.0 | 0.00 | 0.01 | 0.00 | 99 | 1021.1 |
| 20260904030302 | 61 | 0 | 0.0 | 0.0 | 0.00 | 0.01 | 0.00 | 99 | 1021.1 |
| 20260904030203 | 61 | 0 | 0.0 | 0.0 | 0.00 | 0.01 | 0.00 | 99 | 1021.1 |
| 20260904030003 | 60 | 0 | 0.0 | 0.0 | 0.00 | 0.01 | 0.00 | 99 | 1021.2 |
| 20260904025903 | 60 | 350 | 0.0 | 1.0 | 0.00 | 0.01 | 0.00 | 99 | 1021.1 |
| 20260904025803 | 60 | 350 | 0.0 | 1.0 | 0.00 | 0.01 | 0.00 | 99 | 1021.1 |
| 20260904025703 | 60 | 350 | 0.0 | 1.0 | 0.00 | 0.01 | 0.00 | 99 | 1021.3 |
| 20260904025603 | 60 | 350 | 0.0 | 1.0 | 0.00 | 0.01 | 0.00 | 99 | 1021.3 |
| 20260904025503 | 60 | 350 | 0.0 | 1.0 | 0.00 | 0.01 | 0.00 | 99 | 1021.2 |
| 20260904025403 | 60 | 350 | 0.0 | 1.0 | 0.00 | 0.01 | 0.00 | 99 | 1021.2 |
| 20260904025306 | 60 | 350 | 0.0 | 1.0 | 0.00 | 0.01 | 0.00 | 99 | 1021.1 |
| 20260904025203 | 60 | 350 | 0.0 | 1.0 | 0.00 | 0.01 | 0.00 | 99 | 1021.1 |
| 20260904025103 | 60 | 350 | 0.0 | 1.0 | 0.00 | 0.01 | 0.00 | 99 | 1021.2 |
| 20260904025024 | 60 | 350 | 0.0 | 1.0 | 0.00 | 0.01 | 0.00 | 99 | 1021.0 |
| 20260904024903 | 60 | 350 | 0.0 | 1.0 | 0.00 | 0.01 | 0.00 | 99 | 1021.3 |
| 20260904024803 | 60 | 350 | 0.0 | 1.0 | 0.00 | 0.01 | 0.00 | 99 | 1021.3 |
| 20260904024702 | 60 | 350 | 0.0 | 1.0 | 0.00 | 0.01 | 0.00 | 99 | 1021.1 |
| 20260904024603 | 60 | 350 | 0.0 | 1.0 | 0.00 | 0.01 | 0.00 | 99 | 1021.1 |
| 20260904024503 | 60 | 350 | 0.0 | 1.0 | 0.00 | 0.01 | 0.00 | 99 | 1021.2 |
| 20260904024403 | 60 | 350 | 0.0 | 1.0 | 0.00 | 0.01 | 0.00 | 99 | 1021.2 |
| 20260904024302 | 60 | 350 | 0.0 | 1.0 | 0.00 | 0.01 | 0.00 | 99 | 1021.2 |
| 20260904024203 | 60 | 350 | 0.0 | 1.0 | 0.00 | 0.01 | 0.00 | 99 | 1021.0 |
| 20260904024102 | 60 | 350 | 0.0 | 1.0 | 0.00 | 0.01 | 0.00 | 99 | 1021.1 |
| 20260904024002 | 60 | 350 | 0.0 | 1.0 | 0.00 | 0.01 | 0.00 | 99 | 1021.1 |
| 20260904023903 | 60 | 350 | 0.0 | 1.0 | 0.00 | 0.01 | 0.00 | 99 | 1021.0 |
| 20260904023803 | 60 | 350 | 0.0 | 1.0 | 0.00 | 0.01 | 0.00 | 99 | 1021.1 |
| 20260904023703 | 60 | 0 | 0.0 | 0.0 | 0.00 | 0.01 | 0.00 | 99 | 1021.0 |
| 20260904023603 | 60 | 0 | 0.0 | 0.0 | 0.00 | 0.01 | 0.00 | 99 | 1021.0 |
| 20260904023503 | 60 | 0 | 0.0 | 0.0 | 0.00 | 0.01 | 0.00 | 99 | 1021.0 |
| 20260904023424 | 60 | 0 | 0.0 | 0.0 | 0.00 | 0.01 | 0.00 | 99 | 1021.1 |
| 20260904023303 | 60 | 0 | 0.0 | 0.0 | 0.00 | 0.01 | 0.00 | 99 | 1021.0 |
| 20260904023203 | 60 | 0 | 0.0 | 0.0 | 0.00 | 0.01 | 0.00 | 99 | 1021.0 |
| 20260904023103 | 60 | 350 | 0.0 | 1.0 | 0.00 | 0.01 | 0.00 | 99 | 1021.0 |
| 20260904023003 | 60 | 350 | 0.0 | 1.0 | 0.00 | 0.01 | 0.00 | 99 | 1021.0 |
| 20260904022903 | 60 | 350 | 0.0 | 1.0 | 0.00 | 0.01 | 0.00 | 99 | 1021.2 |
| 20260904022824 | 60 | 350 | 0.0 | 1.0 | 0.00 | 0.01 | 0.00 | 99 | 1021.1 |
| 20260904022724 | 60 | 350 | 0.0 | 1.0 | 0.00 | 0.01 | 0.00 | 99 | 1021.0 |
| 20260904022624 | 60 | 350 | 0.0 | 1.0 | 0.00 | 0.01 | 0.00 | 99 | 1021.3 |
| 20260904022503 | 60 | 350 | 0.0 | 1.0 | 0.00 | 0.01 | 0.00 | 99 | 1021.2 |
| 20260904022403 | 60 | 350 | 0.0 | 1.0 | 0.00 | 0.01 | 0.00 | 99 | 1021.2 |
| 20260904022305 | 61 | 350 | 0.0 | 1.0 | 0.00 | 0.01 | 0.00 | 99 | 1021.1 |
| 20260904022224 | 61 | 350 | 0.0 | 1.0 | 0.00 | 0.01 | 0.00 | 99 | 1021.2 |
| 20260904022103 | 61 | 0 | 0.0 | 0.0 | 0.00 | 0.01 | 0.00 | 99 | 1021.1 |
| 20260904022024 | 61 | 0 | 0.0 | 0.0 | 0.00 | 0.01 | 0.00 | 99 | 1021.2 |
| 20260904021903 | 61 | 0 | 0.0 | 0.0 | 0.00 | 0.01 | 0.00 | 99 | 1021.3 |
| 20260904021803 | 61 | 0 | 0.0 | 0.0 | 0.00 | 0.01 | 0.00 | 99 | 1021.1 |
| 20260904021703 | 61 | 0 | 0.0 | 0.0 | 0.00 | 0.01 | 0.00 | 99 | 1021.2 |
| 20260904021603 | 61 | 350 | 0.0 | 1.0 | 0.00 | 0.01 | 0.00 | 99 | 1021.2 |
| 20260904021503 | 61 | 350 | 0.0 | 1.0 | 0.00 | 0.01 | 0.00 | 99 | 1021.1 |
| 20260904021403 | 61 | 350 | 0.0 | 1.0 | 0.00 | 0.01 | 0.00 | 99 | 1021.1 |
| 20260904021303 | 61 | 350 | 0.0 | 1.0 | 0.00 | 0.01 | 0.00 | 99 | 1021.4 |
| 20260904021202 | 61 | 350 | 0.0 | 1.0 | 0.00 | 0.01 | 0.00 | 99 | 1021.2 |
| 20260904021103 | 61 | 350 | 0.0 | 1.0 | 0.00 | 0.01 | 0.00 | 99 | 1021.2 |
| 20260904021003 | 61 | 350 | 0.0 | 1.0 | 0.00 | 0.01 | 0.00 | 99 | 1021.2 |
| 20260904020903 | 61 | 350 | 0.0 | 1.0 | 0.00 | 0.01 | 0.00 | 99 | 1021.1 |
| 20260904020803 | 61 | 350 | 0.0 | 1.0 | 0.00 | 0.01 | 0.00 | 99 | 1021.2 |
| 20260904020703 | 62 | 350 | 1.0 | 1.0 | 0.00 | 0.01 | 0.00 | 99 | 1021.1 |
| 20260904020602 | 62 | 350 | 1.0 | 1.0 | 0.00 | 0.01 | 0.00 | 99 | 1021.1 |
| 20260904020524 | 61 | 350 | 1.0 | 1.0 | 0.00 | 0.01 | 0.00 | 99 | 1021.0 |
| 20260904020424 | 61 | 350 | 1.0 | 1.0 | 0.00 | 0.01 | 0.00 | 99 | 1021.2 |
| 20260904020324 | 61 | 350 | 1.0 | 1.0 | 0.00 | 0.01 | 0.00 | 99 | 1021.1 |
| 20260904020203 | 61 | 350 | 1.0 | 1.0 | 0.00 | 0.01 | 0.00 | 99 | 1021.2 |
| 20260904020003 | 61 | 350 | 1.0 | 1.0 | 0.00 | 0.01 | 0.00 | 99 | 1021.1 |
| 20260904015903 | 61 | 350 | 1.0 | 1.0 | 0.00 | 0.01 | 0.00 | 99 | 1021.1 |
| 20260904015803 | 61 | 350 | 0.0 | 1.0 | 0.00 | 0.01 | 0.00 | 99 | 1021.3 |
| 20260904015703 | 61 | 350 | 0.0 | 1.0 | 0.00 | 0.01 | 0.00 | 99 | 1021.1 |
| 20260904015603 | 61 | 350 | 0.0 | 1.0 | 0.00 | 0.01 | 0.00 | 99 | 1021.2 |
| 20260904015503 | 61 | 350 | 0.0 | 1.0 | 0.00 | 0.01 | 0.00 | 99 | 1021.3 |
| 20260904015403 | 61 | 350 | 0.0 | 1.0 | 0.00 | 0.01 | 0.00 | 99 | 1021.3 |
| 20260904015306 | 61 | 350 | 0.0 | 1.0 | 0.00 | 0.01 | 0.00 | 99 | 1021.3 |
| 20260904015203 | 61 | 350 | 0.0 | 1.0 | 0.00 | 0.01 | 0.00 | 99 | 1021.4 |
| 20260904015124 | 61 | 350 | 0.0 | 1.0 | 0.00 | 0.01 | 0.00 | 99 | 1021.3 |
| 20260904015003 | 61 | 350 | 0.0 | 1.0 | 0.00 | 0.01 | 0.00 | 99 | 1021.4 |
| 20260904014903 | 61 | 350 | 0.0 | 1.0 | 0.00 | 0.01 | 0.00 | 99 | 1021.2 |
| 20260904014803 | 61 | 350 | 0.0 | 1.0 | 0.00 | 0.01 | 0.00 | 99 | 1021.1 |
| 20260904014703 | 61 | 350 | 0.0 | 1.0 | 0.00 | 0.01 | 0.00 | 99 | 1021.5 |
| 20260904014624 | 61 | 350 | 0.0 | 1.0 | 0.00 | 0.01 | 0.00 | 99 | 1021.3 |
| 20260904014503 | 61 | 350 | 0.0 | 1.0 | 0.00 | 0.01 | 0.00 | 99 | 1021.3 |
| 20260904014403 | 61 | 350 | 0.0 | 1.0 | 0.00 | 0.01 | 0.00 | 99 | 1021.4 |
| 20260904014303 | 61 | 350 | 0.0 | 1.0 | 0.00 | 0.01 | 0.00 | 99 | 1021.4 |
| 20260904014203 | 61 | 350 | 0.0 | 1.0 | 0.00 | 0.01 | 0.00 | 99 | 1021.4 |
| 20260904014103 | 61 | 350 | 0.0 | 1.0 | 0.00 | 0.01 | 0.00 | 99 | 1021.4 |
| 20260904014003 | 61 | 0 | 0.0 | 0.0 | 0.00 | 0.01 | 0.00 | 99 | 1021.3 |
| 20260904013903 | 61 | 350 | 0.0 | 1.0 | 0.00 | 0.01 | 0.00 | 99 | 1021.4 |
| 20260904013803 | 61 | 350 | 0.0 | 1.0 | 0.00 | 0.01 | 0.00 | 99 | 1021.5 |
| 20260904013724 | 62 | 350 | 0.0 | 1.0 | 0.00 | 0.01 | 0.00 | 99 | 1021.5 |
| 20260904013603 | 62 | 350 | 0.0 | 1.0 | 0.00 | 0.01 | 0.00 | 99 | 1021.5 |
| 20260904013524 | 62 | 350 | 0.0 | 1.0 | 0.00 | 0.01 | 0.00 | 99 | 1021.5 |
| 20260904013424 | 62 | 350 | 0.0 | 1.0 | 0.00 | 0.01 | 0.00 | 99 | 1021.5 |
| 20260904013303 | 62 | 350 | 0.0 | 1.0 | 0.00 | 0.01 | 0.00 | 99 | 1021.5 |
| 20260904013203 | 62 | 350 | 0.0 | 1.0 | 0.00 | 0.01 | 0.00 | 99 | 1021.7 |
| 20260904013103 | 62 | 350 | 0.0 | 1.0 | 0.00 | 0.01 | 0.00 | 99 | 1021.5 |
| 20260904013003 | 62 | 350 | 0.0 | 1.0 | 0.00 | 0.01 | 0.00 | 99 | 1021.7 |
| 20260904012903 | 62 | 350 | 0.0 | 1.0 | 0.00 | 0.01 | 0.00 | 99 | 1021.7 |
| 20260904012803 | 62 | 350 | 0.0 | 1.0 | 0.00 | 0.01 | 0.00 | 99 | 1021.7 |
| 20260904012703 | 62 | 350 | 0.0 | 1.0 | 0.00 | 0.01 | 0.00 | 99 | 1021.8 |
| 20260904012603 | 62 | 0 | 0.0 | 0.0 | 0.00 | 0.01 | 0.00 | 99 | 1021.6 |
| 20260904012503 | 62 | 0 | 0.0 | 0.0 | 0.00 | 0.01 | 0.00 | 99 | 1021.9 |
| 20260904012403 | 62 | 0 | 0.0 | 0.0 | 0.00 | 0.01 | 0.00 | 99 | 1021.8 |
| 20260904012306 | 62 | 0 | 0.0 | 0.0 | 0.00 | 0.01 | 0.00 | 99 | 1021.7 |
| 20260904012203 | 62 | 0 | 0.0 | 0.0 | 0.00 | 0.01 | 0.00 | 99 | 1021.9 |
| 20260904012103 | 62 | 0 | 0.0 | 0.0 | 0.00 | 0.01 | 0.00 | 99 | 1021.8 |
| 20260904012003 | 62 | 0 | 0.0 | 0.0 | 0.00 | 0.01 | 0.00 | 99 | 1021.8 |
| 20260904011903 | 62 | 0 | 0.0 | 0.0 | 0.00 | 0.01 | 0.00 | 99 | 1021.7 |
| 20260904011803 | 62 | 0 | 0.0 | 0.0 | 0.00 | 0.01 | 0.00 | 99 | 1021.6 |
| 20260904011703 | 62 | 0 | 0.0 | 0.0 | 0.00 | 0.01 | 0.00 | 99 | 1021.6 |
| 20260904011603 | 62 | 0 | 0.0 | 0.0 | 0.00 | 0.01 | 0.00 | 99 | 1021.8 |
| 20260904011503 | 62 | 0 | 0.0 | 0.0 | 0.00 | 0.01 | 0.00 | 99 | 1021.6 |
| 20260904011403 | 62 | 0 | 0.0 | 0.0 | 0.00 | 0.01 | 0.00 | 99 | 1021.6 |
| 20260904011303 | 62 | 0 | 0.0 | 0.0 | 0.00 | 0.01 | 0.00 | 99 | 1021.7 |
| 20260904011203 | 62 | 0 | 0.0 | 0.0 | 0.00 | 0.01 | 0.00 | 99 | 1021.6 |
| 20260904011103 | 62 | 0 | 0.0 | 0.0 | 0.00 | 0.01 | 0.00 | 99 | 1021.6 |
| 20260904011003 | 62 | 0 | 0.0 | 0.0 | 0.00 | 0.01 | 0.00 | 99 | 1021.7 |
| 20260904010903 | 62 | 0 | 0.0 | 0.0 | 0.00 | 0.01 | 0.00 | 99 | 1021.7 |
| 20260904010803 | 62 | 0 | 0.0 | 0.0 | 0.00 | 0.01 | 0.00 | 99 | 1021.7 |
| 20260904010703 | 62 | 0 | 0.0 | 0.0 | 0.00 | 0.01 | 0.00 | 99 | 1021.7 |
| 20260904010603 | 62 | 0 | 0.0 | 0.0 | 0.00 | 0.01 | 0.00 | 99 | 1021.7 |
| 20260904010503 | 62 | 0 | 0.0 | 0.0 | 0.00 | 0.01 | 0.00 | 99 | 1021.8 |
| 20260904010403 | 62 | 0 | 0.0 | 0.0 | 0.00 | 0.01 | 0.00 | 99 | 1021.7 |
| 20260904010303 | 62 | 0 | 0.0 | 0.0 | 0.00 | 0.01 | 0.00 | 99 | 1021.9 |
| 20260904010203 | 62 | 0 | 0.0 | 0.0 | 0.00 | 0.01 | 0.00 | 99 | 1021.6 |
| 20260904010003 | 62 | 350 | 0.0 | 1.0 | 0.00 | 0.01 | 0.00 | 99 | 1021.6 |
| 20260904005903 | 62 | 350 | 0.0 | 1.0 | 0.00 | 0.01 | 0.00 | 99 | 1021.8 |
| 20260904005803 | 62 | 350 | 0.0 | 1.0 | 0.00 | 0.01 | 0.00 | 99 | 1021.7 |
| 20260904005703 | 62 | 350 | 0.0 | 1.0 | 0.00 | 0.01 | 0.00 | 99 | 1021.6 |
| 20260904005603 | 62 | 350 | 0.0 | 1.0 | 0.00 | 0.01 | 0.00 | 99 | 1021.6 |
| 20260904005503 | 62 | 350 | 0.0 | 1.0 | 0.00 | 0.01 | 0.00 | 98 | 1021.7 |
| 20260904005403 | 62 | 350 | 0.0 | 1.0 | 0.00 | 0.01 | 0.00 | 98 | 1021.6 |
| 20260904005306 | 62 | 350 | 0.0 | 1.0 | 0.00 | 0.01 | 0.00 | 98 | 1021.6 |
| 20260904005203 | 62 | 350 | 0.0 | 1.0 | 0.00 | 0.01 | 0.00 | 98 | 1021.8 |
| 20260904005103 | 62 | 350 | 0.0 | 1.0 | 0.00 | 0.01 | 0.00 | 98 | 1021.8 |
| 20260904005003 | 62 | 350 | 0.0 | 1.0 | 0.00 | 0.01 | 0.00 | 98 | 1021.7 |
| 20260904004924 | 63 | 350 | 0.0 | 1.0 | 0.00 | 0.01 | 0.00 | 98 | 1022.0 |
| 20260904004824 | 63 | 350 | 0.0 | 1.0 | 0.00 | 0.01 | 0.00 | 98 | 1021.7 |
| 20260904004724 | 63 | 350 | 0.0 | 1.0 | 0.00 | 0.01 | 0.00 | 98 | 1021.8 |
| 20260904004624 | 62 | 350 | 0.0 | 1.0 | 0.00 | 0.01 | 0.00 | 98 | 1021.7 |
| 20260904004503 | 62 | 350 | 0.0 | 1.0 | 0.00 | 0.01 | 0.00 | 98 | 1021.7 |
| 20260904004424 | 62 | 350 | 0.0 | 1.0 | 0.00 | 0.01 | 0.00 | 98 | 1021.6 |
| 20260904004303 | 62 | 350 | 0.0 | 1.0 | 0.00 | 0.01 | 0.00 | 98 | 1021.7 |
| 20260904004203 | 62 | 350 | 0.0 | 1.0 | 0.00 | 0.01 | 0.00 | 98 | 1021.6 |
| 20260904004103 | 62 | 350 | 0.0 | 1.0 | 0.00 | 0.01 | 0.00 | 98 | 1021.7 |
| 20260904004003 | 62 | 350 | 0.0 | 1.0 | 0.00 | 0.01 | 0.00 | 98 | 1021.7 |
| 20260904003903 | 62 | 350 | 0.0 | 1.0 | 0.00 | 0.01 | 0.00 | 98 | 1021.7 |
| 20260904003803 | 62 | 350 | 0.0 | 1.0 | 0.00 | 0.01 | 0.00 | 98 | 1021.7 |
| 20260904003703 | 62 | 350 | 0.0 | 1.0 | 0.00 | 0.01 | 0.00 | 98 | 1021.6 |
| 20260904003603 | 62 | 350 | 0.0 | 1.0 | 0.00 | 0.01 | 0.00 | 98 | 1021.8 |
| 20260904003503 | 62 | 350 | 0.0 | 1.0 | 0.00 | 0.01 | 0.00 | 98 | 1021.5 |
| 20260904003403 | 62 | 350 | 0.0 | 1.0 | 0.00 | 0.01 | 0.00 | 98 | 1021.6 |
| 20260904003303 | 62 | 350 | 0.0 | 1.0 | 0.00 | 0.01 | 0.00 | 98 | 1021.6 |
| 20260904003203 | 62 | 350 | 0.0 | 1.0 | 0.00 | 0.01 | 0.00 | 98 | 1021.6 |
| 20260904003103 | 62 | 0 | 0.0 | 0.0 | 0.00 | 0.01 | 0.00 | 98 | 1021.7 |
| 20260904003003 | 62 | 350 | 0.0 | 1.0 | 0.00 | 0.01 | 0.00 | 98 | 1021.7 |
| 20260904002903 | 62 | 350 | 0.0 | 1.0 | 0.00 | 0.01 | 0.00 | 98 | 1021.7 |
| 20260904002803 | 62 | 350 | 0.0 | 1.0 | 0.00 | 0.01 | 0.00 | 98 | 1021.6 |
| 20260904002724 | 62 | 350 | 0.0 | 1.0 | 0.00 | 0.01 | 0.00 | 98 | 1021.8 |
| 20260904002603 | 62 | 350 | 0.0 | 1.0 | 0.00 | 0.01 | 0.00 | 98 | 1021.8 |
| 20260904002503 | 62 | 350 | 0.0 | 1.0 | 0.00 | 0.01 | 0.00 | 98 | 1021.8 |
| 20260904002424 | 62 | 350 | 0.0 | 1.0 | 0.00 | 0.01 | 0.00 | 98 | 1021.8 |
| 20260904002324 | 63 | 350 | 0.0 | 1.0 | 0.00 | 0.01 | 0.00 | 98 | 1021.7 |
| 20260904002203 | 63 | 350 | 0.0 | 1.0 | 0.00 | 0.01 | 0.00 | 98 | 1021.6 |
| 20260904002103 | 63 | 350 | 0.0 | 1.0 | 0.00 | 0.01 | 0.00 | 98 | 1021.7 |
| 20260904002024 | 63 | 350 | 0.0 | 1.0 | 0.00 | 0.01 | 0.00 | 98 | 1021.6 |
| 20260904001903 | 63 | 0 | 0.0 | 0.0 | 0.00 | 0.01 | 0.00 | 98 | 1021.7 |
| 20260904001803 | 63 | 0 | 0.0 | 0.0 | 0.00 | 0.01 | 0.00 | 98 | 1021.7 |
| 20260904001703 | 63 | 0 | 0.0 | 0.0 | 0.00 | 0.01 | 0.00 | 98 | 1021.7 |
| 20260904001603 | 63 | 0 | 0.0 | 0.0 | 0.00 | 0.01 | 0.00 | 98 | 1021.7 |
| 20260904001524 | 63 | 0 | 0.0 | 0.0 | 0.00 | 0.01 | 0.00 | 98 | 1021.7 |
| 20260904001403 | 63 | 0 | 0.0 | 0.0 | 0.00 | 0.01 | 0.00 | 98 | 1021.7 |
| 20260904001303 | 63 | 0 | 0.0 | 0.0 | 0.00 | 0.01 | 0.00 | 98 | 1021.5 |
| 20260904001203 | 63 | 0 | 0.0 | 0.0 | 0.00 | 0.01 | 0.00 | 98 | 1021.6 |
| 20260904001103 | 63 | 350 | 0.0 | 1.0 | 0.00 | 0.01 | 0.00 | 98 | 1021.7 |
| 20260904001003 | 64 | 350 | 0.0 | 1.0 | 0.00 | 0.01 | 0.00 | 97 | 1021.6 |
| 20260904000903 | 64 | 350 | 0.0 | 1.0 | 0.00 | 0.01 | 0.00 | 97 | 1021.8 |
| 20260904000803 | 64 | 350 | 0.0 | 1.0 | 0.00 | 0.01 | 0.00 | 97 | 1021.8 |
| 20260904000703 | 64 | 350 | 0.0 | 1.0 | 0.00 | 0.01 | 0.00 | 97 | 1021.8 |
| 20260904000603 | 64 | 350 | 0.0 | 1.0 | 0.00 | 0.01 | 0.00 | 97 | 1021.7 |
| 20260904000503 | 64 | 350 | 0.0 | 1.0 | 0.00 | 0.01 | 0.00 | 97 | 1021.9 |
| 20260904000403 | 64 | 350 | 0.0 | 1.0 | 0.00 | 0.01 | 0.00 | 97 | 1021.7 |
| 20260904000303 | 64 | 350 | 0.0 | 1.0 | 0.00 | 0.01 | 0.00 | 97 | 1021.6 |
| 20260904000204 | 64 | 350 | 0.0 | 1.0 | 0.00 | 0.01 | 0.00 | 97 | 1021.7 |
| 20260904000024 | 64 | 350 | 0.0 | 1.0 | 0.00 | 0.01 | 0.00 | 97 | 1021.7 |
| 20260903235903 | 64 | 350 | 0.0 | 1.0 | 0.00 | 0.01 | 0.00 | 97 | 1021.8 |
| 20260903235803 | 64 | 350 | 0.0 | 1.0 | 0.00 | 0.01 | 0.00 | 97 | 1021.9 |
| 20260903235703 | 64 | 350 | 0.0 | 1.0 | 0.00 | 0.01 | 0.00 | 97 | 1021.6 |
| 20260903235603 | 64 | 350 | 0.0 | 1.0 | 0.00 | 0.01 | 0.00 | 97 | 1021.7 |
| 20260903235503 | 64 | 350 | 0.0 | 1.0 | 0.00 | 0.01 | 0.00 | 97 | 1021.8 |
| 20260903235403 | 64 | 350 | 0.0 | 1.0 | 0.00 | 0.01 | 0.00 | 97 | 1021.7 |
| 20260903235305 | 64 | 350 | 0.0 | 1.0 | 0.00 | 0.01 | 0.00 | 97 | 1021.7 |
| 20260903235203 | 64 | 350 | 0.0 | 1.0 | 0.00 | 0.01 | 0.00 | 97 | 1021.7 |
| 20260903235103 | 64 | 350 | 0.0 | 1.0 | 0.00 | 0.01 | 0.00 | 97 | 1021.6 |
| 20260903235003 | 64 | 350 | 0.0 | 1.0 | 0.00 | 0.01 | 0.00 | 97 | 1021.6 |
| 20260903234903 | 64 | 350 | 0.0 | 1.0 | 0.00 | 0.01 | 0.00 | 97 | 1021.8 |
| 20260903234803 | 64 | 350 | 0.0 | 1.0 | 0.00 | 0.01 | 0.00 | 97 | 1021.6 |
| 20260903234724 | 64 | 350 | 0.0 | 1.0 | 0.00 | 0.01 | 0.00 | 97 | 1021.7 |
| 20260903234603 | 64 | 350 | 0.0 | 1.0 | 0.00 | 0.01 | 0.00 | 97 | 1021.8 |
| 20260903234503 | 64 | 350 | 0.0 | 1.0 | 0.00 | 0.01 | 0.00 | 96 | 1021.8 |
| 20260903234403 | 64 | 350 | 0.0 | 1.0 | 0.00 | 0.01 | 0.00 | 96 | 1021.7 |
| 20260903234303 | 64 | 350 | 0.0 | 1.0 | 0.00 | 0.01 | 0.00 | 96 | 1021.8 |
| 20260903234203 | 64 | 350 | 0.0 | 1.0 | 0.00 | 0.01 | 0.00 | 96 | 1021.5 |
| 20260903234103 | 64 | 350 | 0.0 | 1.0 | 0.00 | 0.01 | 0.00 | 96 | 1021.7 |
| 20260903234003 | 64 | 350 | 0.0 | 1.0 | 0.00 | 0.01 | 0.00 | 96 | 1021.8 |
| 20260903233903 | 64 | 350 | 0.0 | 1.0 | 0.00 | 0.01 | 0.00 | 96 | 1021.7 |
| 20260903233803 | 64 | 350 | 0.0 | 1.0 | 0.00 | 0.01 | 0.00 | 96 | 1021.6 |
| 20260903233703 | 64 | 350 | 0.0 | 1.0 | 0.00 | 0.01 | 0.00 | 96 | 1021.7 |
| 20260903233603 | 64 | 350 | 0.0 | 1.0 | 0.00 | 0.01 | 0.00 | 96 | 1021.6 |
| 20260903233503 | 63 | 350 | 0.0 | 1.0 | 0.00 | 0.01 | 0.00 | 96 | 1021.7 |
| 20260903233403 | 63 | 0 | 0.0 | 0.0 | 0.00 | 0.01 | 0.00 | 96 | 1021.7 |
| 20260903233303 | 63 | 0 | 0.0 | 0.0 | 0.00 | 0.01 | 0.00 | 96 | 1021.5 |
| 20260903233203 | 63 | 0 | 0.0 | 0.0 | 0.00 | 0.01 | 0.00 | 96 | 1021.6 |
| 20260903233103 | 63 | 0 | 0.0 | 0.0 | 0.00 | 0.01 | 0.00 | 96 | 1021.7 |
| 20260903233003 | 64 | 0 | 0.0 | 0.0 | 0.00 | 0.01 | 0.00 | 95 | 1021.8 |
| 20260903232903 | 64 | 0 | 0.0 | 0.0 | 0.00 | 0.01 | 0.00 | 95 | 1021.5 |
| 20260903232803 | 64 | 0 | 0.0 | 0.0 | 0.00 | 0.01 | 0.00 | 95 | 1021.6 |
| 20260903232703 | 64 | 0 | 0.0 | 0.0 | 0.00 | 0.01 | 0.00 | 95 | 1021.6 |
| 20260903232603 | 64 | 0 | 0.0 | 0.0 | 0.00 | 0.01 | 0.00 | 95 | 1021.7 |
| 20260903232504 | 64 | 0 | 0.0 | 0.0 | 0.00 | 0.01 | 0.00 | 95 | 1021.7 |
| 20260903232403 | 64 | 0 | 0.0 | 0.0 | 0.00 | 0.01 | 0.00 | 95 | 1021.7 |
| 20260903232306 | 64 | 0 | 0.0 | 0.0 | 0.00 | 0.01 | 0.00 | 95 | 1021.7 |
| 20260903232203 | 64 | 0 | 0.0 | 0.0 | 0.00 | 0.01 | 0.00 | 95 | 1021.7 |
| 20260903232103 | 64 | 0 | 0.0 | 0.0 | 0.00 | 0.01 | 0.00 | 95 | 1021.6 |
| 20260903232024 | 64 | 0 | 0.0 | 0.0 | 0.00 | 0.01 | 0.00 | 95 | 1021.6 |
| 20260903231903 | 64 | 0 | 0.0 | 0.0 | 0.00 | 0.01 | 0.00 | 95 | 1021.4 |
| 20260903231803 | 64 | 0 | 0.0 | 0.0 | 0.00 | 0.01 | 0.00 | 95 | 1021.7 |
| 20260903231724 | 64 | 0 | 0.0 | 0.0 | 0.00 | 0.01 | 0.00 | 95 | 1021.5 |
| 20260903231603 | 64 | 0 | 0.0 | 0.0 | 0.00 | 0.01 | 0.00 | 95 | 1021.7 |
| 20260903231503 | 64 | 0 | 0.0 | 0.0 | 0.00 | 0.01 | 0.00 | 95 | 1021.7 |
| 20260903231403 | 64 | 0 | 0.0 | 0.0 | 0.00 | 0.01 | 0.00 | 95 | 1021.6 |
| 20260903231303 | 64 | 0 | 0.0 | 0.0 | 0.00 | 0.01 | 0.00 | 95 | 1021.7 |
| 20260903231203 | 64 | 0 | 0.0 | 0.0 | 0.00 | 0.01 | 0.00 | 95 | 1021.6 |
| 20260903231103 | 64 | 0 | 0.0 | 0.0 | 0.00 | 0.01 | 0.00 | 95 | 1021.7 |
| 20260903231024 | 64 | 0 | 0.0 | 0.0 | 0.00 | 0.01 | 0.00 | 95 | 1021.7 |
| 20260903230903 | 64 | 0 | 0.0 | 0.0 | 0.00 | 0.01 | 0.00 | 95 | 1021.6 |
| 20260903230803 | 64 | 0 | 0.0 | 0.0 | 0.00 | 0.01 | 0.00 | 95 | 1021.5 |
| 20260903230703 | 64 | 0 | 0.0 | 0.0 | 0.00 | 0.01 | 0.00 | 95 | 1021.5 |
| 20260903230603 | 64 | 0 | 0.0 | 0.0 | 0.00 | 0.01 | 0.00 | 95 | 1021.6 |
| 20260903230503 | 64 | 0 | 0.0 | 0.0 | 0.00 | 0.01 | 0.00 | 95 | 1021.5 |
| 20260903230403 | 64 | 0 | 0.0 | 0.0 | 0.00 | 0.01 | 0.00 | 95 | 1021.4 |
| 20260903230303 | 64 | 349 | 0.0 | 1.0 | 0.00 | 0.01 | 0.00 | 95 | 1021.6 |
| 20260903230203 | 64 | 349 | 0.0 | 1.0 | 0.00 | 0.01 | 0.00 | 95 | 1021.7 |
| 20260903230003 | 64 | 349 | 0.0 | 1.0 | 0.00 | 0.01 | 0.00 | 95 | 1021.8 |
| 20260903225903 | 64 | 349 | 0.0 | 1.0 | 0.00 | 0.01 | 0.00 | 95 | 1021.6 |
| 20260903225803 | 65 | 349 | 0.0 | 1.0 | 0.00 | 0.01 | 0.00 | 95 | 1021.6 |
| 20260903225703 | 65 | 349 | 0.0 | 1.0 | 0.00 | 0.01 | 0.00 | 94 | 1021.5 |
| 20260903225603 | 65 | 349 | 0.0 | 1.0 | 0.00 | 0.01 | 0.00 | 94 | 1021.8 |
| 20260903225503 | 65 | 349 | 0.0 | 1.0 | 0.00 | 0.01 | 0.00 | 94 | 1021.7 |
| 20260903225403 | 64 | 349 | 0.0 | 1.0 | 0.00 | 0.01 | 0.00 | 94 | 1021.7 |
| 20260903225306 | 64 | 349 | 0.0 | 1.0 | 0.00 | 0.01 | 0.00 | 94 | 1021.5 |
| 20260903225203 | 64 | 0 | 0.0 | 0.0 | 0.00 | 0.01 | 0.00 | 94 | 1021.7 |
| 20260903225103 | 64 | 0 | 0.0 | 0.0 | 0.00 | 0.01 | 0.00 | 94 | 1021.5 |
| 20260903225003 | 65 | 0 | 0.0 | 0.0 | 0.00 | 0.01 | 0.00 | 94 | 1021.7 |
| 20260903224903 | 65 | 0 | 0.0 | 0.0 | 0.00 | 0.01 | 0.00 | 94 | 1021.6 |
| 20260903224803 | 65 | 0 | 0.0 | 0.0 | 0.00 | 0.01 | 0.00 | 94 | 1021.6 |
| 20260903224703 | 65 | 0 | 0.0 | 0.0 | 0.00 | 0.01 | 0.00 | 94 | 1021.6 |
| 20260903224603 | 65 | 0 | 0.0 | 0.0 | 0.00 | 0.01 | 0.00 | 94 | 1021.7 |
| 20260903224524 | 65 | 0 | 0.0 | 0.0 | 0.00 | 0.01 | 0.00 | 94 | 1021.6 |
| 20260903224403 | 65 | 0 | 0.0 | 0.0 | 0.00 | 0.01 | 0.00 | 93 | 1021.8 |
| 20260903224303 | 65 | 0 | 0.0 | 0.0 | 0.00 | 0.01 | 0.00 | 93 | 1021.6 |
| 20260903224203 | 65 | 0 | 0.0 | 0.0 | 0.00 | 0.01 | 0.00 | 93 | 1021.6 |
| 20260903224103 | 65 | 0 | 0.0 | 0.0 | 0.00 | 0.01 | 0.00 | 93 | 1021.7 |
| 20260903224003 | 65 | 0 | 0.0 | 0.0 | 0.00 | 0.01 | 0.00 | 93 | 1021.7 |
| 20260903223903 | 64 | 0 | 0.0 | 0.0 | 0.00 | 0.01 | 0.00 | 93 | 1021.6 |
| 20260903223803 | 64 | 0 | 0.0 | 0.0 | 0.00 | 0.01 | 0.00 | 93 | 1021.7 |
| 20260903223703 | 64 | 0 | 0.0 | 0.0 | 0.00 | 0.01 | 0.00 | 93 | 1021.6 |
| 20260903223624 | 65 | 0 | 0.0 | 0.0 | 0.00 | 0.01 | 0.00 | 93 | 1021.8 |
| 20260903223503 | 65 | 0 | 0.0 | 0.0 | 0.00 | 0.01 | 0.00 | 93 | 1021.6 |
| 20260903223424 | 65 | 0 | 0.0 | 0.0 | 0.00 | 0.01 | 0.00 | 93 | 1021.6 |
| 20260903223324 | 65 | 0 | 0.0 | 0.0 | 0.00 | 0.01 | 0.00 | 93 | 1021.5 |
| 20260903223203 | 65 | 0 | 0.0 | 0.0 | 0.00 | 0.01 | 0.00 | 93 | 1021.7 |
| 20260903223103 | 65 | 0 | 0.0 | 0.0 | 0.00 | 0.01 | 0.00 | 93 | 1021.7 |
| 20260903223003 | 65 | 0 | 0.0 | 0.0 | 0.00 | 0.01 | 0.00 | 93 | 1021.7 |
| 20260903222903 | 65 | 0 | 0.0 | 0.0 | 0.00 | 0.01 | 0.00 | 93 | 1021.8 |
| 20260903222803 | 65 | 0 | 0.0 | 0.0 | 0.00 | 0.01 | 0.00 | 92 | 1021.7 |
| 20260903222703 | 65 | 0 | 0.0 | 0.0 | 0.00 | 0.01 | 0.00 | 92 | 1021.7 |
| 20260903222603 | 65 | 0 | 0.0 | 0.0 | 0.00 | 0.01 | 0.00 | 92 | 1021.6 |
| 20260903222503 | 66 | 0 | 0.0 | 0.0 | 0.00 | 0.01 | 0.00 | 92 | 1021.9 |
| 20260903222403 | 66 | 0 | 0.0 | 0.0 | 0.00 | 0.01 | 0.00 | 92 | 1021.6 |
| 20260903222324 | 66 | 0 | 0.0 | 0.0 | 0.00 | 0.01 | 0.00 | 92 | 1021.6 |
| 20260903222203 | 66 | 0 | 0.0 | 0.0 | 0.00 | 0.01 | 0.00 | 92 | 1021.8 |
| 20260903222103 | 66 | 0 | 0.0 | 0.0 | 0.00 | 0.01 | 0.00 | 92 | 1021.7 |
| 20260903222003 | 66 | 0 | 0.0 | 0.0 | 0.00 | 0.01 | 0.00 | 92 | 1021.7 |
| 20260903221903 | 66 | 0 | 0.0 | 0.0 | 0.00 | 0.01 | 0.00 | 91 | 1021.8 |
| 20260903221803 | 66 | 349 | 0.0 | 1.0 | 0.00 | 0.01 | 0.00 | 91 | 1021.7 |
| 20260903221703 | 66 | 349 | 0.0 | 1.0 | 0.00 | 0.01 | 0.00 | 91 | 1021.6 |
| 20260903221603 | 66 | 349 | 0.0 | 1.0 | 0.00 | 0.01 | 0.00 | 91 | 1021.6 |
| 20260903221503 | 66 | 349 | 0.0 | 1.0 | 0.00 | 0.01 | 0.00 | 91 | 1021.7 |
| 20260903221403 | 67 | 349 | 0.0 | 1.0 | 0.00 | 0.01 | 0.00 | 91 | 1021.6 |
| 20260903221324 | 67 | 349 | 0.0 | 1.0 | 0.00 | 0.01 | 0.00 | 91 | 1021.6 |
| 20260903221224 | 67 | 349 | 0.0 | 1.0 | 0.00 | 0.01 | 0.00 | 91 | 1021.7 |
| 20260903221103 | 67 | 349 | 0.0 | 1.0 | 0.00 | 0.01 | 0.00 | 91 | 1021.6 |
| 20260903221024 | 67 | 349 | 0.0 | 1.0 | 0.00 | 0.01 | 0.00 | 91 | 1021.6 |
| 20260903220903 | 67 | 349 | 0.0 | 1.0 | 0.00 | 0.01 | 0.00 | 91 | 1021.7 |
| 20260903220803 | 67 | 349 | 0.0 | 1.0 | 0.00 | 0.01 | 0.00 | 91 | 1021.7 |
| 20260903220703 | 67 | 349 | 0.0 | 1.0 | 0.00 | 0.01 | 0.00 | 91 | 1021.6 |
| 20260903220603 | 67 | 349 | 0.0 | 1.0 | 0.00 | 0.01 | 0.00 | 92 | 1021.7 |
| 20260903220524 | 67 | 349 | 0.0 | 1.0 | 0.00 | 0.01 | 0.00 | 92 | 1021.6 |
| 20260903220424 | 67 | 349 | 0.0 | 1.0 | 0.00 | 0.01 | 0.00 | 92 | 1021.7 |
| 20260903220303 | 67 | 349 | 0.0 | 1.0 | 0.00 | 0.01 | 0.00 | 92 | 1021.6 |
| 20260903220203 | 67 | 0 | 0.0 | 0.0 | 0.00 | 0.01 | 0.00 | 92 | 1021.6 |
| 20260903220003 | 67 | 0 | 0.0 | 0.0 | 0.00 | 0.01 | 0.00 | 92 | 1021.4 |
| 20260903215903 | 67 | 0 | 0.0 | 0.0 | 0.00 | 0.01 | 0.01 | 92 | 1021.7 |
| 20260903215803 | 67 | 0 | 0.0 | 0.0 | 0.00 | 0.01 | 0.01 | 92 | 1021.7 |
| 20260903215703 | 67 | 0 | 0.0 | 0.0 | 0.00 | 0.01 | 0.01 | 92 | 1021.7 |
| 20260903215603 | 67 | 0 | 0.0 | 0.0 | 0.00 | 0.01 | 0.01 | 92 | 1021.6 |
| 20260903215503 | 67 | 0 | 0.0 | 0.0 | 0.00 | 0.01 | 0.01 | 92 | 1021.5 |
| 20260903215403 | 67 | 0 | 0.0 | 0.0 | 0.00 | 0.01 | 0.01 | 92 | 1021.6 |
| 20260903215306 | 67 | 0 | 0.0 | 0.0 | 0.00 | 0.01 | 0.01 | 92 | 1021.5 |
| 20260903215203 | 67 | 0 | 0.0 | 0.0 | 0.00 | 0.01 | 0.01 | 92 | 1021.6 |
| 20260903215103 | 67 | 0 | 0.0 | 0.0 | 0.00 | 0.01 | 0.01 | 92 | 1021.6 |
| 20260903215003 | 67 | 0 | 0.0 | 0.0 | 0.00 | 0.01 | 0.01 | 91 | 1021.7 |
| 20260903214903 | 67 | 0 | 0.0 | 0.0 | 0.00 | 0.01 | 0.01 | 91 | 1021.6 |
| 20260903214824 | 67 | 0 | 0.0 | 0.0 | 0.00 | 0.01 | 0.01 | 91 | 1021.7 |
| 20260903214703 | 67 | 0 | 0.0 | 0.0 | 0.00 | 0.01 | 0.01 | 91 | 1021.6 |
| 20260903214603 | 67 | 0 | 0.0 | 0.0 | 0.00 | 0.01 | 0.01 | 91 | 1021.6 |
| 20260903214503 | 67 | 0 | 0.0 | 0.0 | 0.00 | 0.01 | 0.01 | 91 | 1021.7 |
| 20260903214403 | 67 | 0 | 0.0 | 0.0 | 0.00 | 0.01 | 0.01 | 91 | 1021.4 |
| 20260903214303 | 67 | 0 | 0.0 | 0.0 | 0.00 | 0.01 | 0.01 | 91 | 1021.6 |
| 20260903214203 | 67 | 0 | 0.0 | 0.0 | 0.00 | 0.01 | 0.01 | 91 | 1021.7 |
| 20260903214103 | 67 | 0 | 0.0 | 0.0 | 0.00 | 0.01 | 0.01 | 91 | 1021.8 |
| 20260903214003 | 67 | 0 | 0.0 | 0.0 | 0.00 | 0.01 | 0.01 | 91 | 1021.7 |
| 20260903213924 | 67 | 0 | 0.0 | 0.0 | 0.00 | 0.01 | 0.01 | 91 | 1021.6 |
| 20260903213803 | 67 | 0 | 0.0 | 0.0 | 0.00 | 0.01 | 0.01 | 91 | 1021.6 |
| 20260903213703 | 67 | 0 | 0.0 | 0.0 | 0.00 | 0.01 | 0.01 | 91 | 1021.8 |
| 20260903213603 | 68 | 0 | 0.0 | 0.0 | 0.00 | 0.01 | 0.01 | 90 | 1021.6 |
| 20260903213503 | 68 | 0 | 0.0 | 0.0 | 0.00 | 0.01 | 0.01 | 90 | 1021.7 |
| 20260903213424 | 68 | 0 | 0.0 | 0.0 | 0.00 | 0.01 | 0.01 | 90 | 1021.6 |
| 20260903213303 | 68 | 0 | 0.0 | 0.0 | 0.00 | 0.01 | 0.01 | 90 | 1021.8 |
| 20260903213203 | 68 | 0 | 0.0 | 0.0 | 0.00 | 0.01 | 0.01 | 90 | 1021.8 |
| 20260903213103 | 68 | 0 | 0.0 | 0.0 | 0.00 | 0.01 | 0.01 | 90 | 1021.7 |
| 20260903213003 | 68 | 0 | 0.0 | 0.0 | 0.00 | 0.01 | 0.01 | 90 | 1021.6 |
| 20260903212924 | 68 | 0 | 0.0 | 0.0 | 0.00 | 0.01 | 0.01 | 90 | 1021.6 |
| 20260903212803 | 68 | 0 | 0.0 | 0.0 | 0.00 | 0.01 | 0.01 | 90 | 1021.6 |
| 20260903212703 | 68 | 349 | 0.0 | 1.0 | 0.00 | 0.01 | 0.01 | 90 | 1021.8 |
| 20260903212603 | 68 | 349 | 0.0 | 1.0 | 0.00 | 0.01 | 0.01 | 90 | 1021.6 |
| 20260903212503 | 68 | 349 | 0.0 | 1.0 | 0.00 | 0.01 | 0.01 | 90 | 1021.7 |
| 20260903212403 | 68 | 349 | 0.0 | 1.0 | 0.00 | 0.01 | 0.01 | 90 | 1021.7 |
| 20260903212306 | 68 | 349 | 0.0 | 1.0 | 0.00 | 0.01 | 0.01 | 90 | 1021.7 |
| 20260903212203 | 68 | 349 | 0.0 | 1.0 | 0.00 | 0.01 | 0.01 | 89 | 1021.7 |
| 20260903212124 | 68 | 349 | 0.0 | 1.0 | 0.00 | 0.01 | 0.01 | 89 | 1021.7 |
| 20260903212003 | 68 | 349 | 0.0 | 1.0 | 0.00 | 0.01 | 0.01 | 89 | 1021.6 |
| 20260903211903 | 67 | 349 | 0.0 | 1.0 | 0.00 | 0.01 | 0.01 | 89 | 1021.6 |
| 20260903211824 | 67 | 349 | 0.0 | 1.0 | 0.00 | 0.01 | 0.01 | 89 | 1021.6 |
| 20260903211724 | 67 | 349 | 0.0 | 1.0 | 0.00 | 0.01 | 0.01 | 89 | 1021.7 |
| 20260903211603 | 67 | 0 | 0.0 | 0.0 | 0.00 | 0.01 | 0.01 | 89 | 1021.8 |
| 20260903211503 | 67 | 0 | 0.0 | 0.0 | 0.00 | 0.01 | 0.01 | 89 | 1021.6 |
| 20260903211403 | 67 | 0 | 0.0 | 0.0 | 0.00 | 0.01 | 0.01 | 89 | 1021.5 |
| 20260903211303 | 67 | 0 | 0.0 | 0.0 | 0.00 | 0.01 | 0.01 | 89 | 1021.7 |
| 20260903211203 | 67 | 0 | 0.0 | 0.0 | 0.00 | 0.01 | 0.01 | 89 | 1021.7 |
| 20260903211103 | 67 | 0 | 0.0 | 0.0 | 0.00 | 0.01 | 0.01 | 88 | 1021.6 |
| 20260903211003 | 67 | 0 | 0.0 | 0.0 | 0.00 | 0.01 | 0.01 | 88 | 1021.7 |
| 20260903210924 | 67 | 0 | 0.0 | 0.0 | 0.00 | 0.01 | 0.01 | 88 | 1021.6 |
| 20260903210803 | 67 | 0 | 0.0 | 0.0 | 0.00 | 0.01 | 0.01 | 88 | 1021.6 |
| 20260903210703 | 67 | 0 | 0.0 | 0.0 | 0.00 | 0.01 | 0.01 | 88 | 1021.5 |
| 20260903210603 | 67 | 0 | 0.0 | 0.0 | 0.00 | 0.01 | 0.01 | 88 | 1021.5 |
| 20260903210503 | 67 | 0 | 0.0 | 0.0 | 0.00 | 0.01 | 0.01 | 88 | 1021.6 |
| 20260903210403 | 67 | 0 | 0.0 | 0.0 | 0.00 | 0.01 | 0.01 | 87 | 1021.6 |
| 20260903210303 | 68 | 0 | 0.0 | 0.0 | 0.00 | 0.01 | 0.01 | 87 | 1021.5 |
| 20260903210203 | 68 | 0 | 0.0 | 0.0 | 0.00 | 0.01 | 0.01 | 87 | 1021.5 |
| 20260903210003 | 68 | 0 | 0.0 | 0.0 | 0.00 | 0.01 | 0.01 | 87 | 1021.5 |
| 20260903205903 | 68 | 0 | 0.0 | 0.0 | 0.00 | 0.01 | 0.01 | 87 | 1021.6 |
| 20260903205803 | 68 | 0 | 0.0 | 0.0 | 0.00 | 0.01 | 0.01 | 87 | 1021.7 |
| 20260903205703 | 68 | 0 | 0.0 | 0.0 | 0.00 | 0.01 | 0.01 | 87 | 1021.6 |
| 20260903205603 | 69 | 0 | 0.0 | 0.0 | 0.00 | 0.01 | 0.01 | 87 | 1021.5 |
| 20260903205524 | 69 | 0 | 0.0 | 0.0 | 0.00 | 0.01 | 0.01 | 87 | 1021.6 |
| 20260903205403 | 69 | 0 | 0.0 | 0.0 | 0.00 | 0.01 | 0.01 | 87 | 1021.5 |
| 20260903205324 | 69 | 0 | 0.0 | 0.0 | 0.00 | 0.01 | 0.01 | 86 | 1021.5 |
| 20260903205203 | 69 | 0 | 0.0 | 0.0 | 0.00 | 0.01 | 0.01 | 86 | 1021.5 |
| 20260903205103 | 69 | 0 | 0.0 | 0.0 | 0.00 | 0.01 | 0.01 | 86 | 1021.7 |
| 20260903205003 | 69 | 0 | 0.0 | 0.0 | 0.00 | 0.01 | 0.01 | 86 | 1021.5 |
| 20260903204903 | 69 | 0 | 0.0 | 0.0 | 0.00 | 0.01 | 0.01 | 86 | 1021.3 |
| 20260903204803 | 69 | 0 | 0.0 | 0.0 | 0.00 | 0.01 | 0.01 | 86 | 1021.4 |
| 20260903204703 | 69 | 0 | 0.0 | 0.0 | 0.00 | 0.01 | 0.01 | 86 | 1021.3 |
| 20260903204603 | 69 | 0 | 0.0 | 0.0 | 0.00 | 0.01 | 0.01 | 86 | 1021.4 |
| 20260903204503 | 69 | 0 | 0.0 | 0.0 | 0.00 | 0.01 | 0.01 | 86 | 1021.3 |
| 20260903204403 | 68 | 0 | 0.0 | 0.0 | 0.00 | 0.01 | 0.01 | 86 | 1021.5 |
| 20260903204303 | 68 | 0 | 0.0 | 0.0 | 0.00 | 0.01 | 0.01 | 86 | 1021.4 |
| 20260903204203 | 69 | 0 | 0.0 | 0.0 | 0.00 | 0.01 | 0.01 | 85 | 1021.3 |
| 20260903204103 | 69 | 0 | 0.0 | 0.0 | 0.00 | 0.01 | 0.01 | 85 | 1021.3 |
| 20260903204003 | 69 | 0 | 0.0 | 0.0 | 0.00 | 0.01 | 0.01 | 85 | 1021.4 |
| 20260903203903 | 69 | 0 | 0.0 | 0.0 | 0.00 | 0.01 | 0.01 | 85 | 1021.6 |
| 20260903203803 | 69 | 0 | 0.0 | 0.0 | 0.00 | 0.01 | 0.01 | 84 | 1021.5 |
| 20260903203703 | 69 | 0 | 0.0 | 0.0 | 0.00 | 0.01 | 0.01 | 84 | 1021.3 |
| 20260903203603 | 69 | 0 | 0.0 | 0.0 | 0.00 | 0.01 | 0.01 | 84 | 1021.5 |
| 20260903203503 | 69 | 0 | 0.0 | 0.0 | 0.00 | 0.01 | 0.01 | 84 | 1021.5 |
| 20260903203403 | 69 | 350 | 0.0 | 1.0 | 0.00 | 0.01 | 0.01 | 83 | 1021.5 |
| 20260903203324 | 69 | 350 | 0.0 | 1.0 | 0.00 | 0.01 | 0.01 | 83 | 1021.5 |
| 20260903203203 | 70 | 350 | 0.0 | 1.0 | 0.00 | 0.01 | 0.01 | 83 | 1021.6 |
| 20260903203103 | 70 | 350 | 0.0 | 1.0 | 0.00 | 0.01 | 0.01 | 83 | 1021.6 |
| 20260903203003 | 70 | 350 | 0.0 | 1.0 | 0.00 | 0.01 | 0.01 | 83 | 1021.6 |
| 20260903202924 | 70 | 350 | 0.0 | 1.0 | 0.00 | 0.01 | 0.01 | 83 | 1021.5 |
| 20260903202824 | 70 | 350 | 0.0 | 1.0 | 0.00 | 0.01 | 0.01 | 83 | 1021.5 |
| 20260903202703 | 70 | 350 | 0.0 | 1.0 | 0.00 | 0.01 | 0.01 | 83 | 1021.4 |
| 20260903202603 | 70 | 350 | 0.0 | 1.0 | 0.00 | 0.01 | 0.01 | 82 | 1021.5 |
| 20260903202504 | 70 | 350 | 0.0 | 1.0 | 0.00 | 0.01 | 0.01 | 82 | 1021.5 |
| 20260903202424 | 70 | 349 | 0.0 | 1.0 | 0.00 | 0.01 | 0.01 | 82 | 1021.4 |
| 20260903202306 | 70 | 349 | 0.0 | 1.0 | 0.00 | 0.01 | 0.01 | 81 | 1021.3 |
| 20260903202203 | 70 | 349 | 0.0 | 1.0 | 0.00 | 0.01 | 0.01 | 81 | 1021.4 |
| 20260903202124 | 70 | 349 | 0.0 | 1.0 | 0.00 | 0.01 | 0.01 | 80 | 1021.1 |
| 20260903202004 | 70 | 349 | 0.0 | 1.0 | 0.00 | 0.01 | 0.01 | 81 | 1021.3 |
| 20260903201903 | 70 | 349 | 0.0 | 1.0 | 0.00 | 0.01 | 0.01 | 81 | 1021.1 |
| 20260903201803 | 70 | 349 | 0.0 | 1.0 | 0.00 | 0.01 | 0.01 | 80 | 1021.3 |
| 20260903201724 | 70 | 350 | 0.0 | 1.0 | 0.00 | 0.01 | 0.01 | 80 | 1021.3 |
| 20260903201603 | 70 | 350 | 0.0 | 1.0 | 0.00 | 0.01 | 0.01 | 80 | 1021.3 |
| 20260903201503 | 71 | 350 | 0.0 | 2.0 | 0.00 | 0.01 | 0.01 | 80 | 1021.4 |
| 20260903201424 | 71 | 350 | 0.0 | 2.0 | 0.00 | 0.01 | 0.01 | 80 | 1021.4 |
| 20260903201303 | 71 | 350 | 0.0 | 2.0 | 0.00 | 0.01 | 0.01 | 80 | 1021.3 |
| 20260903201203 | 71 | 350 | 0.0 | 2.0 | 0.00 | 0.01 | 0.01 | 80 | 1021.3 |
| 20260903201103 | 71 | 350 | 0.0 | 2.0 | 0.00 | 0.01 | 0.01 | 80 | 1021.4 |
| 20260903201003 | 71 | 350 | 0.0 | 2.0 | 0.00 | 0.01 | 0.01 | 80 | 1021.4 |
| 20260903200903 | 71 | 350 | 0.0 | 2.0 | 0.00 | 0.01 | 0.01 | 79 | 1021.2 |
| 20260903200803 | 71 | 350 | 0.0 | 2.0 | 0.00 | 0.01 | 0.01 | 78 | 1021.3 |
| 20260903200724 | 71 | 350 | 0.0 | 2.0 | 0.00 | 0.01 | 0.01 | 78 | 1021.4 |
| 20260903200603 | 71 | 349 | 1.0 | 2.0 | 0.00 | 0.01 | 0.01 | 78 | 1021.2 |
| 20260903200503 | 71 | 349 | 0.0 | 2.0 | 0.00 | 0.01 | 0.01 | 78 | 1021.3 |
| 20260903200403 | 71 | 349 | 0.0 | 2.0 | 0.00 | 0.01 | 0.01 | 77 | 1021.2 |
| 20260903200304 | 71 | 349 | 1.0 | 2.0 | 0.00 | 0.01 | 0.01 | 77 | 1021.1 |
| 20260903200203 | 71 | 349 | 1.0 | 2.0 | 0.00 | 0.01 | 0.01 | 77 | 1021.1 |
| 20260903200003 | 71 | 349 | 1.0 | 2.0 | 0.00 | 0.01 | 0.01 | 77 | 1021.0 |
| 20260903195903 | 71 | 349 | 1.0 | 2.0 | 0.00 | 0.01 | 0.01 | 77 | 1021.1 |
| 20260903195803 | 71 | 349 | 1.0 | 2.0 | 0.00 | 0.01 | 0.01 | 77 | 1021.0 |
| 20260903195703 | 71 | 349 | 1.0 | 2.0 | 0.00 | 0.01 | 0.01 | 77 | 1021.0 |
| 20260903195603 | 71 | 349 | 1.0 | 2.0 | 0.00 | 0.01 | 0.01 | 77 | 1021.0 |
| 20260903195503 | 71 | 349 | 1.0 | 2.0 | 0.00 | 0.01 | 0.01 | 77 | 1021.1 |
| 20260903195403 | 71 | 349 | 1.0 | 2.0 | 0.00 | 0.01 | 0.01 | 77 | 1020.9 |
| 20260903195306 | 71 | 349 | 1.0 | 2.0 | 0.00 | 0.01 | 0.01 | 77 | 1021.0 |
| 20260903195203 | 71 | 349 | 1.0 | 2.0 | 0.00 | 0.01 | 0.01 | 77 | 1021.1 |
| 20260903195103 | 71 | 349 | 0.0 | 2.0 | 0.00 | 0.01 | 0.01 | 77 | 1020.8 |
| 20260903195003 | 71 | 349 | 0.0 | 2.0 | 0.00 | 0.01 | 0.01 | 77 | 1020.8 |
| 20260903194903 | 71 | 349 | 0.0 | 2.0 | 0.00 | 0.01 | 0.01 | 77 | 1021.1 |
| 20260903194824 | 71 | 349 | 0.0 | 1.0 | 0.00 | 0.01 | 0.01 | 77 | 1021.0 |
| 20260903194704 | 71 | 349 | 0.0 | 1.0 | 0.00 | 0.01 | 0.01 | 77 | 1021.0 |
| 20260903194603 | 71 | 349 | 0.0 | 1.0 | 0.00 | 0.01 | 0.01 | 77 | 1021.0 |
| 20260903194503 | 71 | 349 | 0.0 | 1.0 | 0.00 | 0.01 | 0.01 | 76 | 1020.9 |
| 20260903194403 | 71 | 349 | 0.0 | 1.0 | 0.00 | 0.01 | 0.01 | 76 | 1021.0 |
| 20260903194303 | 71 | 349 | 0.0 | 1.0 | 0.00 | 0.01 | 0.01 | 76 | 1020.7 |
| 20260903194203 | 71 | 349 | 0.0 | 1.0 | 0.00 | 0.01 | 0.01 | 76 | 1020.7 |
| 20260903194103 | 71 | 349 | 0.0 | 1.0 | 0.00 | 0.01 | 0.01 | 76 | 1020.8 |
| 20260903194003 | 71 | 349 | 0.0 | 1.0 | 0.00 | 0.01 | 0.01 | 76 | 1020.8 |
| 20260903193924 | 72 | 349 | 0.0 | 1.0 | 0.00 | 0.01 | 0.01 | 76 | 1020.8 |
| 20260903193803 | 72 | 349 | 0.0 | 1.0 | 0.00 | 0.01 | 0.01 | 76 | 1020.8 |
| 20260903193703 | 72 | 349 | 0.0 | 1.0 | 0.00 | 0.01 | 0.01 | 76 | 1020.8 |
| 20260903193624 | 72 | 349 | 0.0 | 1.0 | 0.00 | 0.01 | 0.01 | 76 | 1021.0 |
| 20260903193503 | 72 | 349 | 0.0 | 1.0 | 0.00 | 0.01 | 0.01 | 75 | 1020.8 |
| 20260903193403 | 72 | 349 | 0.0 | 1.0 | 0.00 | 0.01 | 0.01 | 75 | 1020.7 |
| 20260903193303 | 72 | 350 | 0.0 | 1.0 | 0.00 | 0.01 | 0.01 | 75 | 1020.7 |
| 20260903193203 | 72 | 350 | 0.0 | 1.0 | 0.00 | 0.01 | 0.01 | 75 | 1020.5 |
| 20260903193103 | 72 | 350 | 0.0 | 1.0 | 0.00 | 0.01 | 0.01 | 75 | 1020.8 |
| 20260903192703 | 72 | 349 | 1.0 | 2.0 | 0.00 | 0.01 | 0.01 | 76 | 1020.8 |
| 20260903192603 | 72 | 349 | 1.0 | 2.0 | 0.00 | 0.01 | 0.01 | 76 | 1020.8 |
| 20260903192503 | 72 | 349 | 1.0 | 2.0 | 0.00 | 0.01 | 0.01 | 76 | 1020.8 |
| 20260903192403 | 73 | 349 | 1.0 | 3.0 | 0.00 | 0.01 | 0.01 | 76 | 1020.8 |
| 20260903192306 | 73 | 349 | 1.0 | 3.0 | 0.00 | 0.01 | 0.01 | 76 | 1020.7 |
| 20260903192203 | 73 | 349 | 2.0 | 3.0 | 0.00 | 0.01 | 0.01 | 76 | 1020.8 |
| 20260903192103 | 73 | 349 | 2.0 | 3.0 | 0.00 | 0.01 | 0.01 | 76 | 1020.6 |
| 20260903192003 | 73 | 349 | 2.0 | 3.0 | 0.00 | 0.01 | 0.01 | 76 | 1020.6 |
| 20260903191903 | 73 | 349 | 2.0 | 3.0 | 0.00 | 0.01 | 0.01 | 76 | 1020.6 |
| 20260903191824 | 73 | 349 | 2.0 | 3.0 | 0.00 | 0.01 | 0.01 | 76 | 1020.7 |
| 20260903191703 | 73 | 349 | 2.0 | 3.0 | 0.00 | 0.01 | 0.01 | 76 | 1020.6 |
| 20260903191603 | 73 | 349 | 2.0 | 3.0 | 0.00 | 0.01 | 0.01 | 75 | 1020.8 |
| 20260903191524 | 74 | 350 | 1.0 | 3.0 | 0.00 | 0.01 | 0.01 | 75 | 1020.5 |
| 20260903191403 | 74 | 350 | 1.0 | 3.0 | 0.00 | 0.01 | 0.01 | 74 | 1020.5 |
| 20260903191303 | 74 | 350 | 1.0 | 2.0 | 0.00 | 0.01 | 0.01 | 74 | 1020.7 |
| 20260903191203 | 74 | 350 | 1.0 | 2.0 | 0.00 | 0.01 | 0.01 | 73 | 1020.5 |
| 20260903191103 | 74 | 350 | 1.0 | 2.0 | 0.00 | 0.01 | 0.01 | 73 | 1020.4 |
| 20260903191004 | 74 | 350 | 1.0 | 2.0 | 0.00 | 0.01 | 0.01 | 73 | 1020.7 |
| 20260903190903 | 74 | 350 | 0.0 | 1.0 | 0.00 | 0.01 | 0.01 | 72 | 1020.7 |
| 20260903190803 | 74 | 350 | 0.0 | 1.0 | 0.00 | 0.01 | 0.01 | 72 | 1020.6 |
| 20260903190703 | 74 | 350 | 0.0 | 1.0 | 0.00 | 0.01 | 0.01 | 72 | 1020.8 |
| 20260903190603 | 74 | 350 | 0.0 | 1.0 | 0.00 | 0.01 | 0.01 | 71 | 1020.8 |
| 20260903190503 | 74 | 350 | 0.0 | 1.0 | 0.00 | 0.01 | 0.01 | 71 | 1020.7 |
| 20260903190424 | 74 | 350 | 0.0 | 1.0 | 0.00 | 0.01 | 0.01 | 71 | 1020.7 |
| 20260903190303 | 74 | 350 | 0.0 | 1.0 | 0.00 | 0.01 | 0.01 | 71 | 1020.5 |
| 20260903190204 | 74 | 350 | 0.0 | 1.0 | 0.00 | 0.01 | 0.01 | 71 | 1020.8 |
| 20260903190003 | 75 | 350 | 0.0 | 1.0 | 0.00 | 0.01 | 0.01 | 71 | 1020.8 |
| 20260903185903 | 75 | 350 | 0.0 | 1.0 | 0.00 | 0.01 | 0.01 | 70 | 1020.7 |
| 20260903185803 | 75 | 350 | 0.0 | 1.0 | 0.00 | 0.01 | 0.01 | 70 | 1020.6 |
| 20260903185703 | 75 | 350 | 0.0 | 1.0 | 0.00 | 0.01 | 0.01 | 70 | 1020.7 |
| 20260903185604 | 76 | 350 | 0.0 | 1.0 | 0.00 | 0.01 | 0.01 | 70 | 1020.7 |
| 20260903185503 | 76 | 350 | 0.0 | 1.0 | 0.00 | 0.01 | 0.01 | 69 | 1020.6 |
| 20260903185403 | 76 | 350 | 0.0 | 1.0 | 0.00 | 0.01 | 0.01 | 69 | 1020.6 |
| 20260903185306 | 76 | 350 | 0.0 | 1.0 | 0.00 | 0.01 | 0.01 | 69 | 1020.5 |
| 20260903185224 | 76 | 350 | 0.0 | 1.0 | 0.00 | 0.01 | 0.01 | 69 | 1020.6 |
| 20260903185103 | 76 | 350 | 0.0 | 1.0 | 0.00 | 0.01 | 0.01 | 69 | 1020.6 |
| 20260903185003 | 77 | 350 | 0.0 | 1.0 | 0.00 | 0.01 | 0.01 | 68 | 1020.7 |
| 20260903184924 | 77 | 350 | 0.0 | 1.0 | 0.00 | 0.01 | 0.01 | 68 | 1020.6 |
| 20260903184803 | 77 | 350 | 0.0 | 1.0 | 0.00 | 0.01 | 0.01 | 66 | 1020.7 |
| 20260903184703 | 78 | 350 | 0.0 | 1.0 | 0.00 | 0.01 | 0.01 | 66 | 1020.7 |
| 20260903184603 | 78 | 350 | 0.0 | 1.0 | 0.00 | 0.01 | 0.01 | 66 | 1020.7 |
| 20260903184524 | 78 | 350 | 0.0 | 1.0 | 0.00 | 0.01 | 0.01 | 65 | 1020.7 |
| 20260903184403 | 78 | 350 | 0.0 | 1.0 | 0.00 | 0.01 | 0.01 | 66 | 1020.5 |
| 20260903184303 | 78 | 350 | 0.0 | 1.0 | 0.00 | 0.01 | 0.01 | 66 | 1020.7 |
| 20260903184203 | 78 | 350 | 0.0 | 1.0 | 0.00 | 0.01 | 0.01 | 65 | 1020.5 |
| 20260903184103 | 78 | 350 | 0.0 | 1.0 | 0.00 | 0.01 | 0.01 | 64 | 1020.6 |
| 20260903184004 | 78 | 350 | 0.0 | 1.0 | 0.00 | 0.01 | 0.01 | 64 | 1020.7 |
| 20260903183903 | 78 | 350 | 0.0 | 1.0 | 0.00 | 0.01 | 0.01 | 64 | 1020.7 |
| 20260903183803 | 78 | 350 | 0.0 | 1.0 | 0.00 | 0.01 | 0.01 | 64 | 1020.6 |
| 20260903183703 | 78 | 350 | 0.0 | 1.0 | 0.00 | 0.01 | 0.01 | 64 | 1020.7 |
| 20260903183603 | 78 | 350 | 0.0 | 1.0 | 0.00 | 0.01 | 0.01 | 65 | 1020.7 |
| 20260903183503 | 78 | 350 | 0.0 | 1.0 | 0.00 | 0.01 | 0.01 | 65 | 1020.6 |
| 20260903183424 | 78 | 350 | 0.0 | 2.0 | 0.00 | 0.01 | 0.01 | 66 | 1020.6 |
| 20260903183324 | 78 | 350 | 1.0 | 2.0 | 0.00 | 0.01 | 0.01 | 66 | 1020.6 |
| 20260903183224 | 78 | 350 | 1.0 | 2.0 | 0.00 | 0.01 | 0.01 | 66 | 1020.6 |
| 20260903183103 | 78 | 350 | 1.0 | 2.0 | 0.00 | 0.01 | 0.01 | 66 | 1020.7 |
| 20260903183003 | 78 | 350 | 1.0 | 2.0 | 0.00 | 0.01 | 0.01 | 66 | 1020.6 |
| 20260903182924 | 78 | 350 | 1.0 | 2.0 | 0.00 | 0.01 | 0.01 | 65 | 1020.6 |
| 20260903182803 | 78 | 350 | 1.0 | 2.0 | 0.00 | 0.01 | 0.01 | 65 | 1020.5 |
| 20260903182703 | 78 | 350 | 1.0 | 2.0 | 0.00 | 0.01 | 0.01 | 65 | 1020.6 |
| 20260903182603 | 79 | 350 | 1.0 | 2.0 | 0.00 | 0.01 | 0.01 | 65 | 1020.6 |
| 20260903182503 | 79 | 350 | 1.0 | 2.0 | 0.00 | 0.01 | 0.01 | 64 | 1020.6 |
| 20260903182403 | 79 | 350 | 1.0 | 2.0 | 0.00 | 0.01 | 0.01 | 64 | 1020.6 |
| 20260903182306 | 79 | 350 | 1.0 | 2.0 | 0.00 | 0.01 | 0.01 | 64 | 1020.7 |
| 20260903182203 | 80 | 350 | 1.0 | 2.0 | 0.00 | 0.01 | 0.01 | 63 | 1020.5 |
| 20260903182103 | 80 | 350 | 0.0 | 2.0 | 0.00 | 0.01 | 0.01 | 63 | 1020.6 |
| 20260903182003 | 80 | 350 | 1.0 | 2.0 | 0.00 | 0.01 | 0.01 | 62 | 1020.6 |
| 20260903181903 | 81 | 350 | 0.0 | 2.0 | 0.00 | 0.01 | 0.01 | 62 | 1020.6 |
| 20260903181803 | 81 | 349 | 1.0 | 2.0 | 0.00 | 0.01 | 0.01 | 61 | 1020.7 |
| 20260903181703 | 81 | 349 | 1.0 | 2.0 | 0.00 | 0.01 | 0.01 | 62 | 1020.6 |
| 20260903181603 | 80 | 349 | 1.0 | 2.0 | 0.00 | 0.01 | 0.01 | 62 | 1020.6 |
| 20260903181503 | 80 | 348 | 1.0 | 2.0 | 0.00 | 0.01 | 0.01 | 63 | 1020.7 |
| 20260903181403 | 80 | 348 | 1.0 | 2.0 | 0.00 | 0.01 | 0.01 | 63 | 1020.5 |
| 20260903181303 | 80 | 348 | 1.0 | 2.0 | 0.00 | 0.01 | 0.01 | 63 | 1020.6 |
| 20260903181203 | 80 | 348 | 1.0 | 2.0 | 0.00 | 0.01 | 0.01 | 63 | 1020.6 |
| 20260903181103 | 80 | 347 | 1.0 | 2.0 | 0.00 | 0.01 | 0.01 | 63 | 1020.8 |
| 20260903181003 | 80 | 347 | 1.0 | 2.0 | 0.00 | 0.01 | 0.01 | 62 | 1020.6 |
| 20260903180903 | 80 | 347 | 1.0 | 2.0 | 0.00 | 0.01 | 0.01 | 63 | 1020.5 |
| 20260903180803 | 80 | 347 | 1.0 | 2.0 | 0.00 | 0.01 | 0.01 | 63 | 1020.7 |
| 20260903180703 | 80 | 347 | 1.0 | 2.0 | 0.00 | 0.01 | 0.01 | 63 | 1020.6 |
| 20260903180603 | 81 | 347 | 1.0 | 2.0 | 0.00 | 0.01 | 0.01 | 62 | 1020.5 |
| 20260903180524 | 81 | 347 | 1.0 | 2.0 | 0.00 | 0.01 | 0.01 | 62 | 1020.5 |
| 20260903180403 | 81 | 349 | 1.0 | 2.0 | 0.00 | 0.01 | 0.01 | 62 | 1020.6 |
| 20260903180303 | 81 | 349 | 1.0 | 2.0 | 0.00 | 0.01 | 0.01 | 62 | 1020.6 |
| 20260903180204 | 81 | 350 | 1.0 | 2.0 | 0.00 | 0.01 | 0.01 | 61 | 1020.6 |
| 20260903180003 | 81 | 350 | 1.0 | 2.0 | 0.00 | 0.01 | 0.01 | 61 | 1020.5 |
| 20260903175903 | 81 | 351 | 1.0 | 2.0 | 0.00 | 0.01 | 0.01 | 61 | 1020.6 |
| 20260903175803 | 81 | 351 | 1.0 | 2.0 | 0.00 | 0.01 | 0.01 | 62 | 1020.5 |
| 20260903175724 | 81 | 351 | 1.0 | 2.0 | 0.00 | 0.01 | 0.01 | 62 | 1020.5 |
| 20260903175603 | 81 | 351 | 1.0 | 2.0 | 0.00 | 0.01 | 0.01 | 62 | 1020.4 |
| 20260903175503 | 81 | 351 | 1.0 | 2.0 | 0.00 | 0.01 | 0.01 | 62 | 1020.5 |
| 20260903175403 | 82 | 351 | 1.0 | 2.0 | 0.00 | 0.01 | 0.01 | 62 | 1020.5 |
| 20260903175324 | 82 | 350 | 1.0 | 2.0 | 0.00 | 0.01 | 0.01 | 61 | 1020.4 |
| 20260903175203 | 82 | 350 | 1.0 | 2.0 | 0.00 | 0.01 | 0.01 | 61 | 1020.6 |
| 20260903175103 | 82 | 350 | 1.0 | 2.0 | 0.00 | 0.01 | 0.01 | 61 | 1020.6 |
| 20260903175004 | 82 | 350 | 1.0 | 2.0 | 0.00 | 0.01 | 0.01 | 61 | 1020.5 |
| 20260903174903 | 82 | 350 | 1.0 | 2.0 | 0.00 | 0.01 | 0.01 | 61 | 1020.5 |
| 20260903174803 | 82 | 350 | 1.0 | 2.0 | 0.00 | 0.01 | 0.01 | 62 | 1020.6 |
| 20260903174703 | 82 | 350 | 1.0 | 2.0 | 0.00 | 0.01 | 0.01 | 61 | 1020.6 |
| 20260903174603 | 82 | 350 | 1.0 | 2.0 | 0.00 | 0.01 | 0.01 | 62 | 1020.5 |
| 20260903174503 | 82 | 350 | 1.0 | 2.0 | 0.00 | 0.01 | 0.01 | 61 | 1020.5 |
| 20260903174403 | 82 | 350 | 1.0 | 2.0 | 0.00 | 0.01 | 0.01 | 62 | 1020.3 |
| 20260903174303 | 83 | 349 | 1.0 | 2.0 | 0.00 | 0.01 | 0.01 | 61 | 1020.6 |
| 20260903174224 | 83 | 349 | 1.0 | 2.0 | 0.00 | 0.01 | 0.01 | 62 | 1020.6 |
| 20260903174124 | 83 | 349 | 1.0 | 2.0 | 0.00 | 0.01 | 0.01 | 61 | 1020.5 |
| 20260903174003 | 82 | 348 | 1.0 | 2.0 | 0.00 | 0.01 | 0.01 | 61 | 1020.6 |
| 20260903173903 | 82 | 348 | 1.0 | 2.0 | 0.00 | 0.01 | 0.01 | 61 | 1020.5 |
| 20260903173803 | 83 | 348 | 1.0 | 2.0 | 0.00 | 0.01 | 0.01 | 61 | 1020.6 |
| 20260903173703 | 83 | 348 | 1.0 | 2.0 | 0.00 | 0.01 | 0.01 | 61 | 1020.5 |
| 20260903173603 | 83 | 347 | 1.0 | 2.0 | 0.00 | 0.01 | 0.01 | 62 | 1020.7 |
| 20260903173504 | 83 | 347 | 1.0 | 2.0 | 0.00 | 0.01 | 0.01 | 60 | 1020.5 |
| 20260903173403 | 84 | 347 | 1.0 | 2.0 | 0.00 | 0.01 | 0.01 | 60 | 1020.5 |
| 20260903173303 | 84 | 347 | 1.0 | 2.0 | 0.00 | 0.01 | 0.01 | 60 | 1020.3 |
| 20260903173224 | 84 | 347 | 1.0 | 2.0 | 0.00 | 0.01 | 0.01 | 60 | 1020.7 |
| 20260903173124 | 84 | 347 | 1.0 | 2.0 | 0.00 | 0.01 | 0.01 | 59 | 1020.7 |
| 20260903173003 | 84 | 347 | 1.0 | 2.0 | 0.00 | 0.01 | 0.01 | 60 | 1020.6 |
| 20260903172903 | 84 | 346 | 1.0 | 2.0 | 0.00 | 0.01 | 0.01 | 60 | 1020.6 |
| 20260903172804 | 84 | 346 | 1.0 | 2.0 | 0.00 | 0.01 | 0.01 | 59 | 1020.6 |
| 20260903172703 | 84 | 346 | 1.0 | 3.0 | 0.00 | 0.01 | 0.01 | 59 | 1020.7 |
| 20260903172603 | 84 | 346 | 1.0 | 3.0 | 0.00 | 0.01 | 0.01 | 59 | 1020.5 |
| 20260903172503 | 85 | 346 | 1.0 | 3.0 | 0.00 | 0.01 | 0.01 | 59 | 1020.7 |
| 20260903172403 | 85 | 346 | 1.0 | 3.0 | 0.00 | 0.01 | 0.01 | 59 | 1020.6 |
| 20260903172306 | 85 | 346 | 1.0 | 3.0 | 0.00 | 0.01 | 0.01 | 59 | 1020.6 |
| 20260903172203 | 85 | 346 | 1.0 | 3.0 | 0.00 | 0.01 | 0.01 | 58 | 1020.8 |
| 20260903172124 | 85 | 346 | 1.0 | 3.0 | 0.00 | 0.01 | 0.01 | 59 | 1020.5 |
| 20260903172003 | 85 | 346 | 1.0 | 3.0 | 0.00 | 0.01 | 0.01 | 58 | 1020.5 |
| 20260903171903 | 85 | 346 | 1.0 | 3.0 | 0.00 | 0.01 | 0.01 | 59 | 1020.7 |
| 20260903171825 | 85 | 342 | 1.0 | 3.0 | 0.00 | 0.01 | 0.01 | 59 | 1020.7 |
| 20260903171703 | 85 | 342 | 1.0 | 3.0 | 0.00 | 0.01 | 0.01 | 58 | 1020.6 |
| 20260903171603 | 85 | 340 | 1.0 | 2.0 | 0.00 | 0.01 | 0.01 | 58 | 1020.7 |
| 20260903171503 | 85 | 339 | 1.0 | 2.0 | 0.00 | 0.01 | 0.01 | 58 | 1020.6 |
| 20260903171424 | 86 | 340 | 1.0 | 2.0 | 0.00 | 0.01 | 0.01 | 58 | 1020.7 |
| 20260903171303 | 86 | 341 | 1.0 | 2.0 | 0.00 | 0.01 | 0.01 | 58 | 1020.5 |
| 20260903171204 | 86 | 341 | 1.0 | 2.0 | 0.00 | 0.01 | 0.01 | 58 | 1020.7 |
| 20260903171124 | 86 | 341 | 1.0 | 2.0 | 0.00 | 0.01 | 0.01 | 58 | 1020.4 |
| 20260903171004 | 86 | 342 | 1.0 | 3.0 | 0.00 | 0.01 | 0.01 | 57 | 1020.6 |
| 20260903170903 | 86 | 342 | 1.0 | 3.0 | 0.00 | 0.01 | 0.01 | 57 | 1020.6 |
| 20260903170803 | 86 | 348 | 1.0 | 3.0 | 0.00 | 0.01 | 0.01 | 57 | 1020.7 |
| 20260903170724 | 86 | 348 | 1.0 | 3.0 | 0.00 | 0.01 | 0.01 | 57 | 1020.7 |
| 20260903170603 | 86 | 350 | 1.0 | 3.0 | 0.00 | 0.01 | 0.01 | 56 | 1020.6 |
| 20260903170503 | 86 | 353 | 1.0 | 3.0 | 0.00 | 0.01 | 0.01 | 58 | 1020.6 |
| 20260903170424 | 87 | 351 | 2.0 | 3.0 | 0.00 | 0.01 | 0.01 | 58 | 1020.6 |
| 20260903170303 | 87 | 351 | 2.0 | 3.0 | 0.00 | 0.01 | 0.01 | 58 | 1020.7 |
| 20260903170204 | 87 | 353 | 2.0 | 3.0 | 0.00 | 0.01 | 0.01 | 56 | 1020.6 |
| 20260903170103 | 87 | 352 | 2.0 | 3.0 | 0.00 | 0.01 | 0.01 | 56 | 1020.5 |
| 20260903170003 | 86 | 353 | 2.0 | 3.0 | 0.00 | 0.01 | 0.01 | 56 | 1020.5 |
| 20260903165903 | 86 | 353 | 2.0 | 3.0 | 0.00 | 0.01 | 0.01 | 57 | 1020.6 |
| 20260903165803 | 86 | 353 | 2.0 | 3.0 | 0.00 | 0.01 | 0.01 | 58 | 1020.4 |
| 20260903165703 | 86 | 352 | 2.0 | 3.0 | 0.00 | 0.01 | 0.01 | 56 | 1020.6 |
| 20260903165603 | 86 | 353 | 3.0 | 3.0 | 0.00 | 0.01 | 0.01 | 56 | 1020.5 |
| 20260903165503 | 86 | 353 | 3.0 | 3.0 | 0.00 | 0.01 | 0.01 | 56 | 1020.5 |
| 20260903165403 | 86 | 355 | 3.0 | 3.0 | 0.00 | 0.01 | 0.01 | 56 | 1020.5 |
| 20260903165325 | 86 | 353 | 3.0 | 4.0 | 0.00 | 0.01 | 0.01 | 57 | 1020.4 |
| 20260903165203 | 86 | 352 | 3.0 | 4.0 | 0.00 | 0.01 | 0.01 | 56 | 1020.5 |
| 20260903165103 | 86 | 353 | 2.0 | 4.0 | 0.00 | 0.01 | 0.01 | 55 | 1020.5 |
| 20260903165003 | 86 | 354 | 2.0 | 4.0 | 0.00 | 0.01 | 0.01 | 56 | 1020.5 |
| 20260903164924 | 86 | 356 | 2.0 | 4.0 | 0.00 | 0.01 | 0.01 | 55 | 1020.4 |
| 20260903164803 | 86 | 357 | 2.0 | 4.0 | 0.00 | 0.01 | 0.01 | 55 | 1020.4 |
| 20260903164703 | 86 | 358 | 2.0 | 4.0 | 0.00 | 0.01 | 0.01 | 55 | 1020.4 |
| 20260903164603 | 86 | 359 | 1.0 | 4.0 | 0.00 | 0.01 | 0.01 | 55 | 1020.5 |
| 20260903164524 | 87 | 356 | 1.0 | 4.0 | 0.00 | 0.01 | 0.01 | 56 | 1020.4 |
| 20260903164404 | 87 | 354 | 1.0 | 4.0 | 0.00 | 0.01 | 0.01 | 55 | 1020.6 |
| 20260903164303 | 87 | 355 | 1.0 | 3.0 | 0.00 | 0.01 | 0.01 | 57 | 1020.5 |
| 20260903164203 | 87 | 355 | 1.0 | 3.0 | 0.00 | 0.01 | 0.01 | 56 | 1020.4 |
| 20260903164103 | 87 | 354 | 1.0 | 3.0 | 0.00 | 0.01 | 0.01 | 56 | 1020.3 |
| 20260903164003 | 87 | 356 | 1.0 | 3.0 | 0.00 | 0.01 | 0.01 | 56 | 1020.6 |
| 20260903163903 | 87 | 353 | 2.0 | 3.0 | 0.00 | 0.01 | 0.01 | 55 | 1020.4 |
| 20260903163824 | 87 | 352 | 2.0 | 3.0 | 0.00 | 0.01 | 0.01 | 56 | 1020.5 |
| 20260903163724 | 87 | 352 | 2.0 | 3.0 | 0.00 | 0.01 | 0.01 | 55 | 1020.5 |
| 20260903163603 | 87 | 351 | 2.0 | 3.0 | 0.00 | 0.01 | 0.01 | 56 | 1020.6 |
| 20260903163503 | 87 | 350 | 2.0 | 3.0 | 0.00 | 0.01 | 0.01 | 56 | 1020.5 |
| 20260903163425 | 87 | 350 | 2.0 | 3.0 | 0.00 | 0.01 | 0.01 | 56 | 1020.5 |
| 20260903163303 | 87 | 351 | 2.0 | 3.0 | 0.00 | 0.01 | 0.01 | 55 | 1020.5 |
| 20260903163224 | 87 | 354 | 2.0 | 3.0 | 0.00 | 0.01 | 0.01 | 55 | 1020.6 |
| 20260903163103 | 87 | 353 | 2.0 | 3.0 | 0.00 | 0.01 | 0.01 | 56 | 1020.5 |
| 20260903163004 | 87 | 352 | 2.0 | 3.0 | 0.00 | 0.01 | 0.01 | 54 | 1020.4 |
| 20260903162903 | 88 | 352 | 2.0 | 3.0 | 0.00 | 0.01 | 0.01 | 54 | 1020.5 |
| 20260903162824 | 88 | 348 | 2.0 | 3.0 | 0.00 | 0.01 | 0.01 | 54 | 1020.5 |
| 20260903162703 | 87 | 349 | 2.0 | 3.0 | 0.00 | 0.01 | 0.01 | 55 | 1020.6 |
| 20260903162624 | 87 | 353 | 2.0 | 3.0 | 0.00 | 0.01 | 0.01 | 55 | 1020.5 |
| 20260903162524 | 87 | 354 | 2.0 | 3.0 | 0.00 | 0.01 | 0.01 | 55 | 1020.7 |
| 20260903162424 | 87 | 354 | 2.0 | 3.0 | 0.00 | 0.01 | 0.01 | 55 | 1020.5 |
| 20260903162306 | 87 | 354 | 2.0 | 3.0 | 0.00 | 0.01 | 0.01 | 54 | 1020.5 |
| 20260903162203 | 88 | 352 | 2.0 | 3.0 | 0.00 | 0.01 | 0.01 | 55 | 1020.6 |
| 20260903162103 | 88 | 351 | 1.0 | 3.0 | 0.00 | 0.01 | 0.01 | 56 | 1020.5 |
| 20260903162003 | 88 | 350 | 1.0 | 3.0 | 0.00 | 0.01 | 0.01 | 58 | 1020.7 |
| 20260903161924 | 87 | 349 | 1.0 | 3.0 | 0.00 | 0.01 | 0.01 | 56 | 1020.6 |
| 20260903161824 | 87 | 348 | 1.0 | 3.0 | 0.00 | 0.01 | 0.01 | 55 | 1020.5 |
| 20260903161703 | 88 | 354 | 1.0 | 3.0 | 0.00 | 0.01 | 0.01 | 56 | 1020.8 |
| 20260903161603 | 88 | 354 | 1.0 | 3.0 | 0.00 | 0.01 | 0.01 | 55 | 1020.7 |
| 20260903161503 | 89 | 350 | 1.0 | 2.0 | 0.00 | 0.01 | 0.01 | 54 | 1020.6 |
| 20260903161403 | 89 | 350 | 1.0 | 2.0 | 0.00 | 0.01 | 0.01 | 54 | 1020.7 |
| 20260903161303 | 89 | 351 | 1.0 | 2.0 | 0.00 | 0.01 | 0.01 | 55 | 1020.7 |
| 20260903161203 | 89 | 352 | 1.0 | 2.0 | 0.00 | 0.01 | 0.01 | 55 | 1020.7 |
| 20260903161103 | 89 | 351 | 1.0 | 2.0 | 0.00 | 0.01 | 0.01 | 54 | 1020.8 |
| 20260903161003 | 89 | 351 | 1.0 | 2.0 | 0.00 | 0.01 | 0.01 | 53 | 1020.9 |
| 20260903160924 | 89 | 347 | 1.0 | 2.0 | 0.00 | 0.01 | 0.01 | 52 | 1020.6 |
| 20260903160824 | 89 | 346 | 1.0 | 3.0 | 0.00 | 0.01 | 0.01 | 52 | 1020.6 |
| 20260903160703 | 89 | 343 | 1.0 | 3.0 | 0.00 | 0.01 | 0.01 | 53 | 1020.8 |
| 20260903160603 | 89 | 343 | 1.0 | 3.0 | 0.00 | 0.01 | 0.01 | 55 | 1020.7 |
| 20260903160503 | 88 | 341 | 1.0 | 3.0 | 0.00 | 0.01 | 0.01 | 54 | 1020.8 |
| 20260903160403 | 88 | 342 | 1.0 | 3.0 | 0.00 | 0.01 | 0.01 | 55 | 1020.7 |
| 20260903160303 | 88 | 338 | 2.0 | 3.0 | 0.00 | 0.01 | 0.01 | 55 | 1020.7 |
| 20260903160203 | 88 | 338 | 2.0 | 3.0 | 0.00 | 0.01 | 0.01 | 55 | 1020.8 |
| 20260903160103 | 88 | 338 | 2.0 | 3.0 | 0.00 | 0.01 | 0.01 | 54 | 1020.9 |
| 20260903160003 | 88 | 338 | 2.0 | 3.0 | 0.00 | 0.01 | 0.01 | 54 | 1020.8 |
| 20260903155903 | 88 | 339 | 2.0 | 3.0 | 0.00 | 0.01 | 0.01 | 53 | 1020.7 |
| 20260903155824 | 88 | 339 | 2.0 | 3.0 | 0.00 | 0.01 | 0.01 | 53 | 1020.6 |
| 20260903155703 | 88 | 340 | 2.0 | 3.0 | 0.00 | 0.01 | 0.01 | 53 | 1020.7 |
| 20260903155603 | 88 | 340 | 2.0 | 3.0 | 0.00 | 0.01 | 0.01 | 54 | 1020.8 |
| 20260903155504 | 88 | 338 | 2.0 | 3.0 | 0.00 | 0.01 | 0.01 | 54 | 1020.6 |
| 20260903155403 | 88 | 336 | 2.0 | 3.0 | 0.00 | 0.01 | 0.01 | 54 | 1020.6 |
| 20260903155306 | 88 | 337 | 2.0 | 3.0 | 0.00 | 0.01 | 0.01 | 55 | 1020.8 |
| 20260903155203 | 87 | 339 | 2.0 | 3.0 | 0.00 | 0.01 | 0.01 | 54 | 1020.8 |
| 20260903155103 | 87 | 331 | 2.0 | 3.0 | 0.00 | 0.01 | 0.01 | 56 | 1020.8 |
| 20260903155003 | 87 | 332 | 2.0 | 3.0 | 0.00 | 0.01 | 0.01 | 56 | 1020.7 |
| 20260903154903 | 88 | 328 | 2.0 | 3.0 | 0.00 | 0.01 | 0.01 | 56 | 1020.8 |
| 20260903154803 | 88 | 332 | 2.0 | 4.0 | 0.00 | 0.01 | 0.01 | 54 | 1020.8 |
| 20260903154724 | 88 | 331 | 2.0 | 4.0 | 0.00 | 0.01 | 0.01 | 55 | 1020.9 |
| 20260903154603 | 88 | 336 | 2.0 | 4.0 | 0.00 | 0.01 | 0.01 | 55 | 1020.7 |
| 20260903154524 | 88 | 338 | 2.0 | 4.0 | 0.00 | 0.01 | 0.01 | 55 | 1020.9 |
| 20260903154403 | 88 | 339 | 2.0 | 4.0 | 0.00 | 0.01 | 0.01 | 55 | 1020.8 |
| 20260903154304 | 88 | 341 | 2.0 | 4.0 | 0.00 | 0.01 | 0.01 | 55 | 1020.8 |
| 20260903154224 | 88 | 341 | 2.0 | 4.0 | 0.00 | 0.01 | 0.01 | 55 | 1020.8 |
| 20260903154124 | 87 | 342 | 2.0 | 4.0 | 0.00 | 0.01 | 0.01 | 55 | 1020.7 |
| 20260903154003 | 87 | 350 | 2.0 | 4.0 | 0.00 | 0.01 | 0.01 | 57 | 1020.8 |
| 20260903153903 | 87 | 351 | 2.0 | 4.0 | 0.00 | 0.01 | 0.01 | 57 | 1020.8 |
| 20260903153804 | 87 | 356 | 2.0 | 4.0 | 0.00 | 0.01 | 0.01 | 57 | 1020.8 |
| 20260903153703 | 87 | 356 | 2.0 | 4.0 | 0.00 | 0.01 | 0.01 | 57 | 1020.7 |
| 20260903153603 | 87 | 356 | 2.0 | 4.0 | 0.00 | 0.01 | 0.01 | 56 | 1020.8 |
| 20260903153503 | 87 | 355 | 2.0 | 4.0 | 0.00 | 0.01 | 0.01 | 56 | 1020.8 |
| 20260903153403 | 87 | 354 | 2.0 | 4.0 | 0.00 | 0.01 | 0.01 | 56 | 1020.8 |
| 20260903153303 | 87 | 354 | 2.0 | 4.0 | 0.00 | 0.01 | 0.01 | 57 | 1020.8 |
| 20260903153203 | 86 | 356 | 2.0 | 4.0 | 0.00 | 0.01 | 0.01 | 57 | 1020.9 |
| 20260903153103 | 86 | 356 | 2.0 | 4.0 | 0.00 | 0.01 | 0.01 | 59 | 1020.8 |
| 20260903153025 | 86 | 356 | 2.0 | 4.0 | 0.00 | 0.01 | 0.01 | 59 | 1020.8 |
| 20260903152903 | 87 | 353 | 3.0 | 4.0 | 0.00 | 0.01 | 0.01 | 57 | 1020.7 |
| 20260903152803 | 87 | 352 | 3.0 | 4.0 | 0.00 | 0.01 | 0.01 | 55 | 1020.9 |
| 20260903152704 | 87 | 353 | 2.0 | 4.0 | 0.00 | 0.01 | 0.01 | 56 | 1020.7 |
| 20260903152604 | 87 | 351 | 2.0 | 4.0 | 0.00 | 0.01 | 0.01 | 55 | 1020.9 |
| 20260903152503 | 87 | 350 | 2.0 | 3.0 | 0.00 | 0.01 | 0.01 | 58 | 1020.9 |
| 20260903152403 | 87 | 348 | 2.0 | 3.0 | 0.00 | 0.01 | 0.01 | 57 | 1020.9 |
| 20260903152324 | 87 | 348 | 2.0 | 3.0 | 0.00 | 0.01 | 0.01 | 56 | 1020.8 |
| 20260903152224 | 87 | 347 | 2.0 | 3.0 | 0.00 | 0.01 | 0.01 | 56 | 1020.8 |
| 20260903152103 | 87 | 344 | 2.0 | 3.0 | 0.00 | 0.01 | 0.01 | 56 | 1020.9 |
| 20260903152003 | 87 | 345 | 2.0 | 3.0 | 0.00 | 0.01 | 0.01 | 56 | 1021.0 |
| 20260903151903 | 87 | 347 | 2.0 | 3.0 | 0.00 | 0.01 | 0.01 | 57 | 1020.9 |
| 20260903151803 | 88 | 348 | 2.0 | 3.0 | 0.00 | 0.01 | 0.01 | 55 | 1020.9 |
| 20260903151703 | 88 | 348 | 2.0 | 3.0 | 0.00 | 0.01 | 0.01 | 56 | 1021.0 |
| 20260903151603 | 88 | 348 | 2.0 | 3.0 | 0.00 | 0.01 | 0.01 | 55 | 1021.0 |
| 20260903151524 | 88 | 349 | 2.0 | 3.0 | 0.00 | 0.01 | 0.01 | 55 | 1021.0 |
| 20260903151425 | 88 | 343 | 2.0 | 3.0 | 0.00 | 0.01 | 0.01 | 57 | 1021.0 |
| 20260903151303 | 87 | 346 | 2.0 | 3.0 | 0.00 | 0.01 | 0.01 | 57 | 1021.0 |
| 20260903151203 | 87 | 349 | 2.0 | 3.0 | 0.00 | 0.01 | 0.01 | 57 | 1021.1 |
| 20260903151102 | 87 | 351 | 2.0 | 4.0 | 0.00 | 0.01 | 0.01 | 56 | 1021.0 |
| 20260903151003 | 86 | 353 | 2.0 | 4.0 | 0.00 | 0.01 | 0.01 | 58 | 1021.1 |
| 20260903150924 | 86 | 353 | 2.0 | 4.0 | 0.00 | 0.01 | 0.01 | 58 | 1021.1 |
| 20260903150803 | 86 | 344 | 2.0 | 4.0 | 0.00 | 0.01 | 0.01 | 58 | 1021.2 |
| 20260903150703 | 86 | 342 | 2.0 | 4.0 | 0.00 | 0.01 | 0.01 | 57 | 1021.1 |
| 20260903150603 | 86 | 345 | 2.0 | 4.0 | 0.00 | 0.01 | 0.01 | 62 | 1021.3 |
| 20260903150503 | 86 | 344 | 2.0 | 4.0 | 0.00 | 0.01 | 0.01 | 58 | 1021.3 |
| 20260903150424 | 86 | 347 | 2.0 | 4.0 | 0.00 | 0.01 | 0.01 | 59 | 1021.3 |
| 20260903150303 | 87 | 344 | 2.0 | 4.0 | 0.00 | 0.01 | 0.01 | 59 | 1021.2 |
| 20260903150203 | 87 | 337 | 2.0 | 4.0 | 0.00 | 0.01 | 0.01 | 58 | 1021.2 |
| 20260903150003 | 87 | 330 | 2.0 | 3.0 | 0.00 | 0.01 | 0.01 | 58 | 1021.3 |
| 20260903145903 | 87 | 329 | 2.0 | 3.0 | 0.00 | 0.01 | 0.01 | 58 | 1021.2 |
| 20260903145802 | 87 | 337 | 2.0 | 3.0 | 0.00 | 0.01 | 0.01 | 60 | 1021.2 |
| 20260903145725 | 87 | 337 | 2.0 | 3.0 | 0.00 | 0.01 | 0.01 | 60 | 1021.4 |
| 20260903145603 | 87 | 332 | 2.0 | 3.0 | 0.00 | 0.01 | 0.01 | 62 | 1021.4 |
| 20260903145503 | 87 | 326 | 2.0 | 3.0 | 0.00 | 0.01 | 0.01 | 59 | 1021.4 |
| 20260903145403 | 87 | 328 | 2.0 | 3.0 | 0.00 | 0.01 | 0.01 | 60 | 1021.3 |
| 20260903145305 | 87 | 329 | 2.0 | 3.0 | 0.00 | 0.01 | 0.01 | 62 | 1021.4 |
| 20260903145203 | 87 | 331 | 2.0 | 3.0 | 0.00 | 0.01 | 0.01 | 60 | 1021.3 |
| 20260903145103 | 87 | 333 | 2.0 | 6.0 | 0.00 | 0.01 | 0.01 | 60 | 1021.3 |
| 20260903145003 | 87 | 332 | 2.0 | 6.0 | 0.00 | 0.01 | 0.01 | 60 | 1021.3 |
| 20260903144902 | 87 | 329 | 2.0 | 6.0 | 0.00 | 0.01 | 0.01 | 59 | 1021.4 |
| 20260903144802 | 87 | 330 | 2.0 | 6.0 | 0.00 | 0.01 | 0.01 | 61 | 1021.5 |
| 20260903144703 | 87 | 331 | 2.0 | 6.0 | 0.00 | 0.01 | 0.01 | 60 | 1021.4 |
| 20260903144603 | 87 | 331 | 2.0 | 6.0 | 0.00 | 0.01 | 0.01 | 60 | 1021.3 |
| 20260903144503 | 87 | 324 | 2.0 | 6.0 | 0.00 | 0.01 | 0.01 | 60 | 1021.4 |
| 20260903144403 | 87 | 325 | 2.0 | 6.0 | 0.00 | 0.01 | 0.01 | 62 | 1021.4 |
| 20260903144303 | 87 | 328 | 2.0 | 6.0 | 0.00 | 0.01 | 0.01 | 61 | 1021.3 |
| 20260903144203 | 87 | 328 | 2.0 | 6.0 | 0.00 | 0.01 | 0.01 | 60 | 1021.5 |
| 20260903144103 | 87 | 328 | 2.0 | 6.0 | 0.00 | 0.01 | 0.01 | 60 | 1021.5 |
| 20260903144003 | 86 | 329 | 2.0 | 4.0 | 0.00 | 0.01 | 0.01 | 60 | 1021.4 |
| 20260903143903 | 86 | 329 | 2.0 | 4.0 | 0.00 | 0.01 | 0.01 | 59 | 1021.4 |
| 20260903143803 | 87 | 324 | 2.0 | 4.0 | 0.00 | 0.01 | 0.01 | 59 | 1021.5 |
| 20260903143702 | 87 | 324 | 2.0 | 4.0 | 0.00 | 0.01 | 0.01 | 59 | 1021.3 |
| 20260903143603 | 87 | 322 | 2.0 | 4.0 | 0.00 | 0.01 | 0.01 | 59 | 1021.4 |
| 20260903143503 | 87 | 325 | 2.0 | 4.0 | 0.00 | 0.01 | 0.01 | 60 | 1021.6 |
| 20260903143403 | 87 | 333 | 2.0 | 4.0 | 0.00 | 0.01 | 0.01 | 62 | 1021.5 |
| 20260903143303 | 87 | 331 | 2.0 | 4.0 | 0.00 | 0.01 | 0.01 | 59 | 1021.3 |
| 20260903143203 | 87 | 327 | 2.0 | 4.0 | 0.00 | 0.01 | 0.01 | 62 | 1021.6 |
| 20260903143103 | 87 | 324 | 2.0 | 4.0 | 0.00 | 0.01 | 0.01 | 61 | 1021.5 |
| 20260903143003 | 87 | 325 | 2.0 | 4.0 | 0.00 | 0.01 | 0.01 | 61 | 1021.6 |
| 20260903142903 | 87 | 325 | 2.0 | 4.0 | 0.00 | 0.01 | 0.01 | 61 | 1021.6 |
| 20260903142803 | 87 | 325 | 2.0 | 4.0 | 0.00 | 0.01 | 0.01 | 58 | 1021.5 |
| 20260903142703 | 87 | 335 | 2.0 | 3.0 | 0.00 | 0.01 | 0.01 | 60 | 1021.4 |
| 20260903142624 | 87 | 336 | 2.0 | 4.0 | 0.00 | 0.01 | 0.01 | 59 | 1021.5 |
| 20260903142503 | 88 | 336 | 2.0 | 4.0 | 0.00 | 0.01 | 0.01 | 59 | 1021.5 |
| 20260903142424 | 88 | 337 | 2.0 | 4.0 | 0.00 | 0.01 | 0.01 | 58 | 1021.5 |
| 20260903142306 | 88 | 339 | 2.0 | 4.0 | 0.00 | 0.01 | 0.01 | 59 | 1021.5 |
| 20260903142224 | 87 | 342 | 2.0 | 4.0 | 0.00 | 0.01 | 0.01 | 60 | 1021.5 |
| 20260903142103 | 87 | 349 | 2.0 | 4.0 | 0.00 | 0.01 | 0.01 | 60 | 1021.7 |
| 20260903142003 | 87 | 351 | 2.0 | 4.0 | 0.00 | 0.01 | 0.01 | 59 | 1021.5 |
| 20260903141903 | 87 | 352 | 2.0 | 4.0 | 0.00 | 0.01 | 0.01 | 59 | 1021.4 |
| 20260903141824 | 87 | 352 | 2.0 | 4.0 | 0.00 | 0.01 | 0.01 | 59 | 1021.6 |
| 20260903141702 | 87 | 355 | 2.0 | 4.0 | 0.00 | 0.01 | 0.01 | 60 | 1021.6 |
| 20260903141603 | 87 | 355 | 2.0 | 4.0 | 0.00 | 0.01 | 0.01 | 59 | 1021.5 |
| 20260903141503 | 86 | 358 | 2.0 | 4.0 | 0.00 | 0.01 | 0.01 | 60 | 1021.4 |
| 20260903141403 | 87 | 359 | 2.0 | 4.0 | 0.00 | 0.01 | 0.01 | 59 | 1021.4 |
| 20260903141303 | 87 | 351 | 2.0 | 4.0 | 0.00 | 0.01 | 0.01 | 61 | 1021.4 |
| 20260903141203 | 87 | 352 | 2.0 | 4.0 | 0.00 | 0.01 | 0.01 | 59 | 1021.4 |
| 20260903141103 | 87 | 347 | 2.0 | 4.0 | 0.00 | 0.01 | 0.01 | 61 | 1021.5 |
| 20260903141003 | 87 | 347 | 2.0 | 4.0 | 0.00 | 0.01 | 0.01 | 58 | 1021.6 |
| 20260903140902 | 87 | 349 | 2.0 | 4.0 | 0.00 | 0.01 | 0.01 | 60 | 1021.5 |
| 20260903140803 | 87 | 348 | 2.0 | 4.0 | 0.00 | 0.01 | 0.01 | 59 | 1021.5 |
| 20260903140703 | 87 | 348 | 2.0 | 4.0 | 0.00 | 0.01 | 0.01 | 59 | 1021.5 |
| 20260903140603 | 87 | 348 | 2.0 | 4.0 | 0.00 | 0.01 | 0.01 | 59 | 1021.7 |
| 20260903140503 | 87 | 350 | 2.0 | 4.0 | 0.00 | 0.01 | 0.01 | 59 | 1021.5 |
| 20260903140403 | 87 | 351 | 2.0 | 6.0 | 0.00 | 0.01 | 0.01 | 57 | 1021.5 |
| 20260903140303 | 87 | 351 | 2.0 | 6.0 | 0.00 | 0.01 | 0.01 | 58 | 1021.4 |
| 20260903140203 | 87 | 358 | 2.0 | 6.0 | 0.00 | 0.01 | 0.01 | 58 | 1021.5 |
| 20260903140003 | 87 | 357 | 2.0 | 6.0 | 0.00 | 0.01 | 0.01 | 58 | 1021.4 |
| 20260903135903 | 86 | 357 | 2.0 | 6.0 | 0.00 | 0.01 | 0.01 | 59 | 1021.5 |
| 20260903135803 | 86 | 357 | 2.0 | 6.0 | 0.00 | 0.01 | 0.01 | 58 | 1021.7 |
| 20260903135703 | 86 | 357 | 2.0 | 6.0 | 0.00 | 0.01 | 0.01 | 57 | 1021.5 |
| 20260903135603 | 86 | 357 | 2.0 | 6.0 | 0.00 | 0.01 | 0.01 | 58 | 1021.5 |
| 20260903135503 | 86 | 356 | 2.0 | 6.0 | 0.00 | 0.01 | 0.01 | 58 | 1021.4 |
| 20260903135403 | 86 | 356 | 2.0 | 6.0 | 0.00 | 0.01 | 0.01 | 58 | 1021.5 |
| 20260903135306 | 87 | 357 | 2.0 | 4.0 | 0.00 | 0.01 | 0.01 | 58 | 1021.4 |
| 20260903135203 | 87 | 356 | 2.0 | 4.0 | 0.00 | 0.01 | 0.01 | 59 | 1021.8 |
| 20260903135103 | 87 | 358 | 2.0 | 4.0 | 0.00 | 0.01 | 0.01 | 58 | 1021.7 |
| 20260903135003 | 87 | 358 | 2.0 | 4.0 | 0.00 | 0.01 | 0.01 | 59 | 1021.5 |
| 20260903134903 | 87 | 355 | 1.0 | 4.0 | 0.00 | 0.01 | 0.01 | 62 | 1021.5 |
| 20260903134825 | 86 | 355 | 2.0 | 4.0 | 0.00 | 0.01 | 0.01 | 61 | 1021.6 |
| 20260903134703 | 86 | 354 | 2.0 | 4.0 | 0.00 | 0.01 | 0.01 | 61 | 1021.5 |
| 20260903134603 | 86 | 354 | 2.0 | 4.0 | 0.00 | 0.01 | 0.01 | 61 | 1021.7 |
| 20260903134524 | 86 | 355 | 2.0 | 4.0 | 0.00 | 0.01 | 0.01 | 58 | 1021.8 |
| 20260903134403 | 87 | 356 | 2.0 | 3.0 | 0.00 | 0.01 | 0.01 | 61 | 1021.5 |
| 20260903134303 | 87 | 355 | 2.0 | 3.0 | 0.00 | 0.01 | 0.01 | 59 | 1021.7 |
| 20260903134203 | 86 | 354 | 2.0 | 3.0 | 0.00 | 0.01 | 0.01 | 60 | 1021.5 |
| 20260903134103 | 86 | 356 | 2.0 | 6.0 | 0.00 | 0.01 | 0.01 | 60 | 1021.5 |
| 20260903134003 | 86 | 357 | 2.0 | 6.0 | 0.00 | 0.01 | 0.01 | 59 | 1021.4 |
| 20260903133903 | 85 | 356 | 2.0 | 6.0 | 0.00 | 0.01 | 0.01 | 60 | 1021.6 |
| 20260903133803 | 85 | 358 | 2.0 | 6.0 | 0.00 | 0.01 | 0.01 | 60 | 1021.7 |
| 20260903133703 | 85 | 358 | 2.0 | 6.0 | 0.00 | 0.01 | 0.01 | 61 | 1021.5 |
| 20260903133603 | 85 | 359 | 2.0 | 6.0 | 0.00 | 0.01 | 0.01 | 61 | 1021.7 |
| 20260903133503 | 85 | 356 | 2.0 | 6.0 | 0.00 | 0.01 | 0.01 | 61 | 1021.6 |
| 20260903133403 | 85 | 357 | 2.0 | 6.0 | 0.00 | 0.01 | 0.01 | 60 | 1021.8 |
| 20260903133303 | 85 | 360 | 2.0 | 6.0 | 0.00 | 0.01 | 0.01 | 61 | 1021.6 |
| 20260903133203 | 85 | 359 | 2.0 | 6.0 | 0.00 | 0.01 | 0.01 | 60 | 1021.6 |
| 20260903133124 | 85 | 2 | 2.0 | 4.0 | 0.00 | 0.01 | 0.01 | 61 | 1021.6 |
| 20260903133003 | 85 | 3 | 2.0 | 4.0 | 0.00 | 0.01 | 0.01 | 62 | 1021.6 |
| 20260903132903 | 85 | 5 | 2.0 | 4.0 | 0.00 | 0.01 | 0.01 | 63 | 1021.8 |